BAW22G EGKK-MDPC

Flight info

Callsign BAW22G
Flight time 8h 29m
Altitude 36000
Route IMVUR N63 SAM N19 ADKIK DCT JOZMA DCT GAPLI/M082F360 DCT OMOKO DCT 45N018W 44N020W/M082F380 41N025W 38N030W 33N040W 29N050W/M082F400 DCT KAVAX M525 SOCCO/N0470F400 M525 LEILA DCT ANTEX ANTEX2B
Aircraft B772/H-SDE2E3FGHIJ5LORVWXY/LB1D1

Departure

Time 2026-04-07 11:45
Airport London Gatwick Airport (EGKK)

Arrival

Time 2026-04-07 20:15
Airport Punta Cana International Airport (MDPC)
Time Latitude Longitude Altitude Speed Heading
2026-04-07 11:05 51.15769 -0.16929 209 ft 0 kts 49°
2026-04-07 11:30 51.15769 -0.16930 209 ft 1 kts 49°
2026-04-07 11:30 51.15759 -0.16949 219 ft 3 kts 53°
2026-04-07 11:30 51.15747 -0.16975 216 ft 3 kts 59°
2026-04-07 11:31 51.15738 -0.17004 223 ft 3 kts 70°
2026-04-07 11:31 51.15733 -0.17034 219 ft 3 kts 94°
2026-04-07 11:31 51.15736 -0.17057 221 ft 2 kts 148°
2026-04-07 11:31 51.15741 -0.17062 217 ft 0 kts 167°
2026-04-07 11:35 51.15738 -0.17061 220 ft 3 kts 167°
2026-04-07 11:35 51.15687 -0.17042 217 ft 9 kts 168°
2026-04-07 11:35 51.15642 -0.17080 212 ft 8 kts 242°
2026-04-07 11:35 51.15620 -0.17208 213 ft 14 kts 256°
2026-04-07 11:36 51.15596 -0.17362 215 ft 14 kts 256°
2026-04-07 11:36 51.15550 -0.17440 217 ft 10 kts 180°
2026-04-07 11:36 51.15481 -0.17420 214 ft 10 kts 167°
2026-04-07 11:36 51.15409 -0.17394 215 ft 13 kts 168°
2026-04-07 11:37 51.15326 -0.17373 218 ft 9 kts 193°
2026-04-07 11:37 51.15298 -0.17465 218 ft 13 kts 258°
2026-04-07 11:37 51.15276 -0.17638 212 ft 16 kts 257°
2026-04-07 11:37 51.15250 -0.17825 209 ft 19 kts 257°
2026-04-07 11:38 51.15221 -0.18034 215 ft 20 kts 258°
2026-04-07 11:38 51.15191 -0.18258 216 ft 20 kts 262°
2026-04-07 11:38 51.15167 -0.18478 216 ft 20 kts 257°
2026-04-07 11:38 51.15136 -0.18696 212 ft 20 kts 258°
2026-04-07 11:39 51.15106 -0.18916 214 ft 21 kts 258°
2026-04-07 11:39 51.15073 -0.19158 217 ft 22 kts 258°
2026-04-07 11:39 51.15041 -0.19395 217 ft 22 kts 257°
2026-04-07 11:39 51.15006 -0.19647 216 ft 25 kts 257°
2026-04-07 11:40 51.14968 -0.19923 214 ft 26 kts 257°
2026-04-07 11:40 51.14929 -0.20202 217 ft 26 kts 257°
2026-04-07 11:40 51.14890 -0.20484 215 ft 26 kts 257°
2026-04-07 11:40 51.14851 -0.20759 215 ft 25 kts 257°
2026-04-07 11:41 51.14814 -0.21032 215 ft 23 kts 258°
2026-04-07 11:41 51.14788 -0.21174 215 ft 13 kts 250°
2026-04-07 11:41 51.14766 -0.21313 214 ft 13 kts 257°
2026-04-07 11:41 51.14716 -0.21404 218 ft 12 kts 182°
2026-04-07 11:42 51.14647 -0.21345 219 ft 11 kts 152°
2026-04-07 11:42 51.14624 -0.21334 221 ft 0 kts 166°
2026-04-07 11:43 51.14595 -0.21322 220 ft 10 kts 165°
2026-04-07 11:43 51.14523 -0.21226 219 ft 15 kts 114°
2026-04-07 11:43 51.14528 -0.21111 220 ft 0 kts 78°
2026-04-07 11:44 51.14529 -0.21109 220 ft 5 kts 78°
2026-04-07 11:44 51.14581 -0.20730 218 ft 68 kts 78°
2026-04-07 11:45 51.14729 -0.19662 220 ft 128 kts 78°
2026-04-07 11:45 51.14959 -0.18007 245 ft 174 kts 78°
2026-04-07 11:45 51.15215 -0.16106 817 ft 174 kts 77°
2026-04-07 11:45 51.15482 -0.14208 1473 ft 177 kts 77°
2026-04-07 11:46 51.15754 -0.12287 1998 ft 187 kts 77°
2026-04-07 11:46 51.16061 -0.10148 2154 ft 207 kts 77°
2026-04-07 11:46 51.16545 -0.07900 2245 ft 225 kts 56°
2026-04-07 11:46 51.17687 -0.06085 2446 ft 243 kts 31°
2026-04-07 11:47 51.19311 -0.05173 2755 ft 255 kts
2026-04-07 11:47 51.21044 -0.05761 2747 ft 257 kts 326°
2026-04-07 11:47 51.22193 -0.07886 3143 ft 258 kts 293°
2026-04-07 11:47 51.22607 -0.10674 3659 ft 262 kts 272°
2026-04-07 11:48 51.22449 -0.13573 4193 ft 264 kts 260°
2026-04-07 11:48 51.22103 -0.16460 4842 ft 265 kts 258°
2026-04-07 11:48 51.21738 -0.19318 5467 ft 267 kts 258°
2026-04-07 11:48 51.21369 -0.22233 6061 ft 269 kts 259°
2026-04-07 11:49 51.21012 -0.25184 6637 ft 272 kts 259°
2026-04-07 11:49 51.20660 -0.28162 7203 ft 274 kts 259°
2026-04-07 11:49 51.20309 -0.31166 7752 ft 277 kts 259°
2026-04-07 11:49 51.19954 -0.34205 8294 ft 279 kts 259°
2026-04-07 11:50 51.19571 -0.37259 8811 ft 282 kts 258°
2026-04-07 11:50 51.19172 -0.40328 9339 ft 284 kts 258°
2026-04-07 11:50 51.18770 -0.43420 9848 ft 286 kts 258°
2026-04-07 11:50 51.18364 -0.46552 10263 ft 293 kts 258°
2026-04-07 11:51 51.17942 -0.49797 10403 ft 312 kts 258°
2026-04-07 11:51 51.17480 -0.53277 10556 ft 329 kts 256°
2026-04-07 11:51 51.16740 -0.56836 10797 ft 346 kts 248°
2026-04-07 11:51 51.15763 -0.60411 11308 ft 355 kts 245°
2026-04-07 11:52 51.14728 -0.64027 11970 ft 361 kts 245°
2026-04-07 11:52 51.13693 -0.67682 12799 ft 364 kts 246°
2026-04-07 11:52 51.12664 -0.71391 13602 ft 368 kts 246°
2026-04-07 11:52 51.11638 -0.75148 14345 ft 373 kts 246°
2026-04-07 11:53 51.10605 -0.78962 15088 ft 377 kts 247°
2026-04-07 11:53 51.09566 -0.82817 15844 ft 381 kts 247°
2026-04-07 11:53 51.08516 -0.86714 16582 ft 385 kts 247°
2026-04-07 11:53 51.07455 -0.90652 17295 ft 389 kts 247°
2026-04-07 11:54 51.06381 -0.94622 17992 ft 393 kts 247°
2026-04-07 11:54 51.05289 -0.98648 18667 ft 398 kts 247°
2026-04-07 11:54 51.04186 -1.02712 19349 ft 402 kts 246°
2026-04-07 11:54 51.03070 -1.06815 20041 ft 406 kts 246°
2026-04-07 11:55 51.01946 -1.10944 20729 ft 409 kts 246°
2026-04-07 11:55 51.00812 -1.15104 21392 ft 412 kts 246°
2026-04-07 11:55 50.99665 -1.19307 22011 ft 417 kts 246°
2026-04-07 11:55 50.98505 -1.23551 22618 ft 421 kts 246°
2026-04-07 11:56 50.97349 -1.27768 23207 ft 424 kts 246°
2026-04-07 11:56 50.96178 -1.32085 23782 ft 427 kts 248°
2026-04-07 11:56 50.95210 -1.36566 24331 ft 431 kts 255°
2026-04-07 11:56 50.94565 -1.41223 24842 ft 434 kts 259°
2026-04-07 11:57 50.93992 -1.45961 25332 ft 438 kts 259°
2026-04-07 11:57 50.93409 -1.50716 25818 ft 441 kts 259°
2026-04-07 11:57 50.92811 -1.55500 26284 ft 444 kts 259°
2026-04-07 11:57 50.92198 -1.60327 26724 ft 448 kts 258°
2026-04-07 11:58 50.91575 -1.65176 27149 ft 451 kts 258°
2026-04-07 11:58 50.90944 -1.70057 27550 ft 454 kts 258°
2026-04-07 11:58 50.90303 -1.74983 27950 ft 457 kts 258°
2026-04-07 11:58 50.89658 -1.79926 28341 ft 459 kts 258°
2026-04-07 11:59 50.89009 -1.84890 28714 ft 462 kts 258°
2026-04-07 11:59 50.88355 -1.89882 29063 ft 464 kts 258°
2026-04-07 11:59 50.87695 -1.94901 29396 ft 467 kts 258°
2026-04-07 11:59 50.87030 -1.99934 29748 ft 468 kts 258°
2026-04-07 12:00 50.86360 -2.04991 30079 ft 470 kts 258°
2026-04-07 12:00 50.85696 -2.10007 30382 ft 472 kts 258°
2026-04-07 12:00 50.85019 -2.15110 30653 ft 475 kts 258°
2026-04-07 12:00 50.84338 -2.20225 30913 ft 477 kts 258°
2026-04-07 12:01 50.83651 -2.25370 31148 ft 479 kts 258°
2026-04-07 12:01 50.82957 -2.30541 31376 ft 481 kts 258°
2026-04-07 12:01 50.82258 -2.35736 31606 ft 483 kts 258°
2026-04-07 12:01 50.81556 -2.40937 31830 ft 484 kts 258°
2026-04-07 12:02 50.80853 -2.46133 32143 ft 483 kts 258°
2026-04-07 12:02 50.80149 -2.51314 32478 ft 482 kts 258°
2026-04-07 12:02 50.79447 -2.56494 32783 ft 481 kts 258°
2026-04-07 12:02 50.78806 -2.61679 33070 ft 480 kts 259°
2026-04-07 12:03 50.78209 -2.66864 33352 ft 480 kts 260°
2026-04-07 12:03 50.77626 -2.72047 33649 ft 479 kts 260°
2026-04-07 12:03 50.77041 -2.77215 33969 ft 477 kts 260°
2026-04-07 12:03 50.76450 -2.82374 34260 ft 477 kts 259°
2026-04-07 12:04 50.75849 -2.87529 34526 ft 476 kts 259°
2026-04-07 12:04 50.75251 -2.92605 34784 ft 476 kts 259°
2026-04-07 12:04 50.74640 -2.97743 35028 ft 476 kts 259°
2026-04-07 12:04 50.74026 -3.02882 35288 ft 476 kts 259°
2026-04-07 12:05 50.73411 -3.07997 35582 ft 474 kts 259°
2026-04-07 12:05 50.72795 -3.13106 35822 ft 474 kts 259°
2026-04-07 12:05 50.72176 -3.18222 35924 ft 476 kts 259°
2026-04-07 12:05 50.71552 -3.23368 35971 ft 478 kts 259°
2026-04-07 12:06 50.70300 -3.33626 35988 ft 473 kts 259°
2026-04-07 12:06 50.69049 -3.43796 36005 ft 471 kts 259°
2026-04-07 12:07 50.67802 -3.53862 36002 ft 470 kts 259°
2026-04-07 12:07 50.66538 -3.63990 36004 ft 471 kts 259°
2026-04-07 12:08 50.65260 -3.74150 35997 ft 473 kts 259°
2026-04-07 12:08 50.64189 -3.82612 36007 ft 474 kts 259°
2026-04-07 12:09 50.62890 -3.92820 36001 ft 476 kts 258°
2026-04-07 12:09 50.61535 -4.03058 36003 ft 477 kts 258°
2026-04-07 12:10 50.60124 -4.13292 36004 ft 477 kts 258°
2026-04-07 12:10 50.58710 -4.23486 35999 ft 476 kts 258°
2026-04-07 12:11 50.57298 -4.33651 35997 ft 475 kts 258°
2026-04-07 12:11 50.55894 -4.43721 35996 ft 473 kts 257°
2026-04-07 12:12 50.54476 -4.53827 36000 ft 473 kts 257°
2026-04-07 12:12 50.53048 -4.63932 36000 ft 473 kts 257°
2026-04-07 12:13 50.51611 -4.74033 35998 ft 473 kts 257°
2026-04-07 12:13 50.50166 -4.84125 36003 ft 473 kts 257°
2026-04-07 12:14 50.48712 -4.94206 36003 ft 473 kts 257°
2026-04-07 12:14 50.47249 -5.04282 36001 ft 473 kts 257°
2026-04-07 12:15 50.45776 -5.14368 36002 ft 473 kts 257°
2026-04-07 12:15 50.44306 -5.24369 36002 ft 473 kts 257°
2026-04-07 12:16 50.42819 -5.34416 36002 ft 473 kts 257°
2026-04-07 12:16 50.41323 -5.44454 36003 ft 473 kts 257°
2026-04-07 12:17 50.39819 -5.54488 36002 ft 473 kts 257°
2026-04-07 12:17 50.38307 -5.64514 36000 ft 473 kts 257°
2026-04-07 12:18 50.36786 -5.74528 36000 ft 473 kts 257°
2026-04-07 12:18 50.35256 -5.84542 36001 ft 473 kts 256°
2026-04-07 12:19 50.33716 -5.94561 36000 ft 473 kts 256°
2026-04-07 12:19 50.32178 -6.04503 36001 ft 473 kts 256°
2026-04-07 12:20 50.30621 -6.14511 35999 ft 473 kts 256°
2026-04-07 12:20 50.29055 -6.24510 36001 ft 473 kts 256°
2026-04-07 12:21 50.27481 -6.34497 36000 ft 473 kts 256°
2026-04-07 12:21 50.25899 -6.44475 36003 ft 473 kts 256°
2026-04-07 12:22 50.24307 -6.54463 36003 ft 473 kts 256°
2026-04-07 12:22 50.22709 -6.64422 36003 ft 473 kts 256°
2026-04-07 12:23 50.21098 -6.74398 36004 ft 473 kts 256°
2026-04-07 12:23 50.19490 -6.84300 35998 ft 473 kts 256°
2026-04-07 12:24 50.17867 -6.94241 36001 ft 473 kts 256°
2026-04-07 12:24 50.16233 -7.04185 35999 ft 473 kts 256°
2026-04-07 12:25 50.14591 -7.14121 36004 ft 473 kts 255°
2026-04-07 12:25 50.12941 -7.24045 36001 ft 473 kts 255°
2026-04-07 12:26 50.11282 -7.33969 36002 ft 473 kts 255°
2026-04-07 12:26 50.09627 -7.43814 36002 ft 473 kts 255°
2026-04-07 12:27 50.07951 -7.53721 36002 ft 473 kts 255°
2026-04-07 12:27 50.06267 -7.63625 36003 ft 473 kts 255°
2026-04-07 12:28 50.04573 -7.73530 36002 ft 473 kts 255°
2026-04-07 12:29 50.02020 -7.88356 36001 ft 473 kts 255°
2026-04-07 12:29 50.00303 -7.98235 36002 ft 473 kts 254°
2026-04-07 12:30 49.98007 -8.07796 36005 ft 472 kts 247°
2026-04-07 12:30 49.95453 -8.17130 36006 ft 473 kts 247°
2026-04-07 12:31 49.92887 -8.26531 35998 ft 473 kts 247°
2026-04-07 12:31 49.90332 -8.35954 36003 ft 473 kts 247°
2026-04-07 12:32 49.87778 -8.45374 36001 ft 473 kts 247°
2026-04-07 12:32 49.85219 -8.54780 36002 ft 473 kts 247°
2026-04-07 12:33 49.82648 -8.64187 36002 ft 473 kts 247°
2026-04-07 12:33 49.80073 -8.73570 36001 ft 473 kts 247°
2026-04-07 12:34 49.77509 -8.82873 36004 ft 473 kts 247°
2026-04-07 12:34 49.74917 -8.92239 36002 ft 473 kts 247°
2026-04-07 12:35 49.72322 -9.01581 36001 ft 473 kts 247°
2026-04-07 12:35 49.69717 -9.10924 35998 ft 473 kts 246°
2026-04-07 12:36 49.67106 -9.20250 36002 ft 473 kts 246°
2026-04-07 12:36 49.64486 -9.29569 36004 ft 473 kts 246°
2026-04-07 12:37 49.61862 -9.38867 36002 ft 473 kts 246°
2026-04-07 12:37 49.59228 -9.48165 36002 ft 473 kts 246°
2026-04-07 12:38 49.56586 -9.57454 36000 ft 473 kts 246°
2026-04-07 12:38 49.53936 -9.66738 35999 ft 473 kts 246°
2026-04-07 12:39 49.51280 -9.76002 36001 ft 473 kts 246°
2026-04-07 12:39 49.48635 -9.85195 36001 ft 473 kts 246°
2026-04-07 12:40 49.45962 -9.94448 36002 ft 473 kts 246°
2026-04-07 12:40 49.43280 -10.03699 36003 ft 473 kts 246°
2026-04-07 12:41 49.40594 -10.12927 36002 ft 473 kts 246°
2026-04-07 12:41 49.37901 -10.22144 35999 ft 473 kts 246°
2026-04-07 12:42 49.35199 -10.31357 36003 ft 473 kts 246°
2026-04-07 12:42 49.32507 -10.40498 36002 ft 473 kts 246°
2026-04-07 12:43 49.29791 -10.49691 36003 ft 473 kts 245°
2026-04-07 12:43 49.27065 -10.58880 36000 ft 473 kts 245°
2026-04-07 12:44 49.24332 -10.68056 36003 ft 473 kts 245°
2026-04-07 12:44 49.21594 -10.77218 36001 ft 473 kts 245°
2026-04-07 12:45 49.18851 -10.86360 36002 ft 473 kts 245°
2026-04-07 12:45 49.16119 -10.95433 36001 ft 473 kts 245°
2026-04-07 12:46 49.13359 -11.04567 36002 ft 473 kts 245°
2026-04-07 12:46 49.10589 -11.13695 35999 ft 473 kts 245°
2026-04-07 12:47 49.07817 -11.22799 36001 ft 473 kts 245°
2026-04-07 12:47 49.05037 -11.31895 36003 ft 473 kts 245°
2026-04-07 12:48 49.02249 -11.40985 36001 ft 473 kts 245°
2026-04-07 12:48 48.99452 -11.50069 36001 ft 473 kts 245°
2026-04-07 12:49 48.96668 -11.59079 35999 ft 473 kts 245°
2026-04-07 12:49 48.93858 -11.68143 35999 ft 473 kts 245°
2026-04-07 12:50 48.91039 -11.77199 36002 ft 473 kts 245°
2026-04-07 12:50 48.88219 -11.86232 36003 ft 473 kts 245°
2026-04-07 12:51 48.85385 -11.95255 36001 ft 473 kts 243°
2026-04-07 12:51 48.81877 -12.03687 36003 ft 473 kts 231°
2026-04-07 12:52 48.77594 -12.11164 36004 ft 473 kts 229°
2026-04-07 12:52 48.73234 -12.18654 35999 ft 473 kts 229°
2026-04-07 12:53 48.68884 -12.26170 36002 ft 474 kts 229°
2026-04-07 12:53 48.64552 -12.33674 36001 ft 474 kts 229°
2026-04-07 12:54 48.60212 -12.41181 36001 ft 474 kts 229°
2026-04-07 12:54 48.55873 -12.48666 36001 ft 474 kts 229°
2026-04-07 12:55 48.52255 -12.54889 36002 ft 474 kts 229°
2026-04-07 12:55 48.47197 -12.63561 35999 ft 474 kts 229°
2026-04-07 12:56 48.43548 -12.69802 36003 ft 473 kts 229°
2026-04-07 12:56 48.39216 -12.77189 36001 ft 473 kts 229°
2026-04-07 12:57 48.34851 -12.84613 36003 ft 473 kts 229°
2026-04-07 12:57 48.30483 -12.92021 36003 ft 473 kts 229°
2026-04-07 12:58 48.26110 -12.99417 35999 ft 473 kts 229°
2026-04-07 12:58 48.21731 -13.06803 36003 ft 473 kts 228°
2026-04-07 12:59 48.17347 -13.14175 36002 ft 473 kts 228°
2026-04-07 12:59 48.12955 -13.21542 36002 ft 473 kts 228°
2026-04-07 13:00 48.08585 -13.28851 35999 ft 473 kts 228°
2026-04-07 13:00 48.04187 -13.36186 36002 ft 473 kts 228°
2026-04-07 13:01 47.99784 -13.43510 36001 ft 473 kts 228°
2026-04-07 13:01 47.95379 -13.50816 36003 ft 473 kts 228°
2026-04-07 13:02 47.90966 -13.58116 36003 ft 473 kts 228°
2026-04-07 13:02 47.86578 -13.65355 36000 ft 473 kts 228°
2026-04-07 13:03 47.82158 -13.72626 36003 ft 473 kts 228°
2026-04-07 13:03 47.77735 -13.79882 35999 ft 473 kts 228°
2026-04-07 13:04 47.73301 -13.87136 36003 ft 473 kts 228°
2026-04-07 13:04 47.68866 -13.94373 36003 ft 473 kts 228°
2026-04-07 13:05 47.64452 -14.01557 36001 ft 473 kts 227°
2026-04-07 13:05 47.60009 -14.08766 36003 ft 473 kts 227°
2026-04-07 13:06 47.55561 -14.15965 36002 ft 473 kts 227°
2026-04-07 13:06 47.51107 -14.23154 36002 ft 473 kts 227°
2026-04-07 13:07 47.46654 -14.30322 36003 ft 473 kts 227°
2026-04-07 13:07 47.42190 -14.37489 36002 ft 473 kts 227°
2026-04-07 13:08 47.37725 -14.44637 36003 ft 473 kts 227°
2026-04-07 13:08 47.33279 -14.51736 36003 ft 473 kts 227°
2026-04-07 13:09 47.28809 -14.58854 36001 ft 473 kts 227°
2026-04-07 13:09 47.24329 -14.65970 36002 ft 473 kts 227°
2026-04-07 13:10 47.19848 -14.73068 35998 ft 473 kts 227°
2026-04-07 13:10 47.15360 -14.80158 36003 ft 473 kts 227°
2026-04-07 13:11 47.10864 -14.87241 36003 ft 473 kts 227°
2026-04-07 13:11 47.06373 -14.94299 36002 ft 473 kts 227°
2026-04-07 13:12 47.01870 -15.01356 36001 ft 473 kts 227°
2026-04-07 13:12 46.97368 -15.08394 36001 ft 473 kts 227°
2026-04-07 13:13 46.92887 -15.15379 36001 ft 473 kts 227°
2026-04-07 13:13 46.88371 -15.22401 35999 ft 473 kts 227°
2026-04-07 13:14 46.83853 -15.29408 36002 ft 473 kts 227°
2026-04-07 13:14 46.79330 -15.36403 35999 ft 473 kts 227°
2026-04-07 13:15 46.74799 -15.43392 36003 ft 473 kts 227°
2026-04-07 13:15 46.70300 -15.50316 35999 ft 473 kts 226°
2026-04-07 13:16 46.65767 -15.57272 36002 ft 473 kts 226°
2026-04-07 13:16 46.61223 -15.64227 35999 ft 473 kts 226°
2026-04-07 13:17 46.56678 -15.71165 36001 ft 473 kts 226°
2026-04-07 13:17 46.52136 -15.78082 36003 ft 473 kts 226°
2026-04-07 13:18 46.47584 -15.84996 36002 ft 473 kts 226°
2026-04-07 13:18 46.43030 -15.91895 36001 ft 473 kts 226°
2026-04-07 13:19 46.38474 -15.98778 36003 ft 473 kts 226°
2026-04-07 13:19 46.33908 -16.05660 35999 ft 473 kts 226°
2026-04-07 13:20 46.29367 -16.12486 36003 ft 473 kts 226°
2026-04-07 13:20 46.24789 -16.19349 36001 ft 473 kts 226°
2026-04-07 13:21 46.20219 -16.26185 35998 ft 473 kts 226°
2026-04-07 13:21 46.15640 -16.33015 36001 ft 473 kts 226°
2026-04-07 13:22 46.11060 -16.39829 36001 ft 473 kts 226°
2026-04-07 13:22 46.06491 -16.46610 36003 ft 473 kts 226°
2026-04-07 13:23 46.01902 -16.53405 36001 ft 473 kts 226°
2026-04-07 13:23 45.97309 -16.60186 36002 ft 473 kts 226°
2026-04-07 13:24 45.92710 -16.66961 36001 ft 473 kts 226°
2026-04-07 13:24 45.88103 -16.73729 35999 ft 473 kts 226°
2026-04-07 13:25 45.83493 -16.80485 36001 ft 473 kts 226°
2026-04-07 13:25 45.78884 -16.87222 36001 ft 473 kts 226°
2026-04-07 13:26 45.74272 -16.93947 36002 ft 473 kts 225°
2026-04-07 13:26 45.69650 -17.00670 36003 ft 473 kts 225°
2026-04-07 13:27 45.65055 -17.07336 36002 ft 473 kts 225°
2026-04-07 13:27 45.60426 -17.14036 36003 ft 473 kts 225°
2026-04-07 13:28 45.55794 -17.20723 36002 ft 473 kts 225°
2026-04-07 13:28 45.51161 -17.27395 35999 ft 473 kts 225°
2026-04-07 13:29 45.46524 -17.34056 36000 ft 473 kts 225°
2026-04-07 13:29 45.41883 -17.40706 36003 ft 473 kts 225°
2026-04-07 13:30 45.37236 -17.47349 36001 ft 473 kts 225°
2026-04-07 13:30 45.32588 -17.53977 36001 ft 473 kts 225°
2026-04-07 13:31 45.27933 -17.60598 35999 ft 473 kts 225°
2026-04-07 13:31 45.23277 -17.67204 35999 ft 473 kts 225°
2026-04-07 13:32 45.18620 -17.73796 36000 ft 473 kts 225°
2026-04-07 13:32 45.13988 -17.80338 35999 ft 473 kts 225°
2026-04-07 13:33 45.09290 -17.86957 35999 ft 473 kts 225°
2026-04-07 13:33 45.02312 -17.96759 35999 ft 473 kts 225°
2026-04-07 13:34 44.98030 -18.03818 35999 ft 473 kts 236°
2026-04-07 13:34 44.94363 -18.11511 36005 ft 473 kts 236°
2026-04-07 13:35 44.90673 -18.19207 36002 ft 473 kts 236°
2026-04-07 13:35 44.86982 -18.26820 36000 ft 473 kts 236°
2026-04-07 13:36 44.83251 -18.34466 36002 ft 473 kts 236°
2026-04-07 13:36 44.79514 -18.42098 36000 ft 473 kts 235°
2026-04-07 13:37 44.75770 -18.49727 36000 ft 473 kts 235°
2026-04-07 13:37 44.72023 -18.57344 36001 ft 473 kts 235°
2026-04-07 13:38 44.68272 -18.64950 36001 ft 473 kts 235°
2026-04-07 13:38 44.64514 -18.72549 36001 ft 473 kts 235°
2026-04-07 13:39 44.60783 -18.80074 36001 ft 473 kts 235°
2026-04-07 13:39 44.57014 -18.87655 36000 ft 473 kts 235°
2026-04-07 13:40 44.53239 -18.95229 36002 ft 473 kts 235°
2026-04-07 13:40 44.49465 -19.02782 36001 ft 473 kts 235°
2026-04-07 13:41 44.45687 -19.10322 36003 ft 473 kts 235°
2026-04-07 13:41 44.41927 -19.17806 36003 ft 473 kts 235°
2026-04-07 13:42 44.38135 -19.25336 35999 ft 473 kts 235°
2026-04-07 13:42 44.34340 -19.32852 36003 ft 473 kts 235°
2026-04-07 13:43 44.31182 -19.39090 36003 ft 473 kts 235°
2026-04-07 13:43 44.26758 -19.47808 36003 ft 473 kts 234°
2026-04-07 13:44 44.22949 -19.55294 36001 ft 473 kts 234°
2026-04-07 13:44 44.19781 -19.61505 36003 ft 473 kts 234°
2026-04-07 13:45 44.15963 -19.68973 35999 ft 473 kts 234°
2026-04-07 13:45 44.12140 -19.76431 36003 ft 473 kts 234°
2026-04-07 13:46 44.08313 -19.83881 36001 ft 473 kts 234°
2026-04-07 13:46 44.04479 -19.91324 35999 ft 473 kts 234°
2026-04-07 13:47 44.00645 -19.98751 36001 ft 473 kts 234°
2026-04-07 13:47 43.96723 -20.06092 36001 ft 473 kts 232°
2026-04-07 13:48 43.92696 -20.13313 36002 ft 473 kts 232°
2026-04-07 13:48 43.88688 -20.20480 36003 ft 473 kts 232°
2026-04-07 13:49 43.84654 -20.27722 36243 ft 475 kts 232°
2026-04-07 13:49 43.82636 -20.31348 36522 ft 474 kts 232°
2026-04-07 13:49 43.80626 -20.34959 36800 ft 473 kts 232°
2026-04-07 13:50 43.78615 -20.38566 37065 ft 472 kts 232°
2026-04-07 13:50 43.76609 -20.42163 37275 ft 472 kts 232°
2026-04-07 13:50 43.74598 -20.45761 37476 ft 473 kts 232°
2026-04-07 13:50 43.72584 -20.49361 37678 ft 473 kts 232°
2026-04-07 13:51 43.70571 -20.52955 37879 ft 472 kts 232°
2026-04-07 13:51 43.68575 -20.56512 37932 ft 474 kts 232°
2026-04-07 13:51 43.64521 -20.63726 37998 ft 475 kts 232°
2026-04-07 13:52 43.60479 -20.70901 37994 ft 472 kts 232°
2026-04-07 13:52 43.56451 -20.78033 38000 ft 470 kts 232°
2026-04-07 13:53 43.52428 -20.85139 38003 ft 470 kts 232°
2026-04-07 13:53 43.48398 -20.92240 38003 ft 471 kts 232°
2026-04-07 13:54 43.44385 -20.99294 38003 ft 472 kts 232°
2026-04-07 13:54 43.40329 -21.06405 38002 ft 472 kts 232°
2026-04-07 13:55 43.36265 -21.13515 38002 ft 473 kts 232°
2026-04-07 13:55 43.32194 -21.20620 38001 ft 474 kts 232°
2026-04-07 13:56 43.28112 -21.27725 38001 ft 474 kts 232°
2026-04-07 13:56 43.24030 -21.34815 38001 ft 473 kts 232°
2026-04-07 13:57 43.19942 -21.41897 38001 ft 473 kts 232°
2026-04-07 13:57 43.15857 -21.48956 38001 ft 473 kts 232°
2026-04-07 13:58 43.11766 -21.56011 38001 ft 473 kts 232°
2026-04-07 13:58 43.07672 -21.63053 38001 ft 472 kts 231°
2026-04-07 13:59 43.03601 -21.70037 38001 ft 472 kts 231°
2026-04-07 13:59 42.99498 -21.77062 38001 ft 472 kts 231°
2026-04-07 14:00 42.95390 -21.84078 38002 ft 472 kts 231°
2026-04-07 14:00 42.91276 -21.91086 38002 ft 472 kts 231°
2026-04-07 14:01 42.87160 -21.98082 38001 ft 473 kts 231°
2026-04-07 14:01 42.83067 -22.05022 38001 ft 473 kts 231°
2026-04-07 14:02 42.78942 -22.12002 38001 ft 473 kts 231°
2026-04-07 14:02 42.74812 -22.18972 38001 ft 473 kts 231°
2026-04-07 14:03 42.70677 -22.25935 38001 ft 473 kts 231°
2026-04-07 14:03 42.66539 -22.32885 38001 ft 473 kts 231°
2026-04-07 14:04 42.62391 -22.39836 38001 ft 473 kts 231°
2026-04-07 14:04 42.58272 -22.46723 38001 ft 473 kts 231°
2026-04-07 14:05 42.54126 -22.53639 38001 ft 473 kts 231°
2026-04-07 14:05 42.49969 -22.60557 38001 ft 473 kts 231°
2026-04-07 14:06 42.45808 -22.67466 38001 ft 473 kts 231°
2026-04-07 14:06 42.41647 -22.74358 38001 ft 473 kts 231°
2026-04-07 14:07 42.37480 -22.81245 38001 ft 473 kts 231°
2026-04-07 14:07 42.33336 -22.88077 38001 ft 473 kts 231°
2026-04-07 14:08 42.29158 -22.94950 38001 ft 473 kts 231°
2026-04-07 14:08 42.24981 -23.01806 38001 ft 473 kts 231°
2026-04-07 14:09 42.20797 -23.08657 38001 ft 473 kts 231°
2026-04-07 14:09 42.16605 -23.15506 38001 ft 473 kts 230°
2026-04-07 14:10 42.12414 -23.22337 38001 ft 473 kts 230°
2026-04-07 14:10 42.08219 -23.29159 38001 ft 473 kts 230°
2026-04-07 14:11 42.04049 -23.35925 38001 ft 473 kts 230°
2026-04-07 14:11 41.99842 -23.42735 38001 ft 473 kts 230°
2026-04-07 14:12 41.95638 -23.49525 38001 ft 473 kts 230°
2026-04-07 14:12 41.91419 -23.56324 38001 ft 473 kts 230°
2026-04-07 14:13 41.87203 -23.63103 38001 ft 473 kts 230°
2026-04-07 14:13 41.82985 -23.69870 38001 ft 473 kts 230°
2026-04-07 14:14 41.78763 -23.76627 38001 ft 473 kts 230°
2026-04-07 14:14 41.74539 -23.83372 38001 ft 473 kts 230°
2026-04-07 14:15 41.70307 -23.90116 38001 ft 473 kts 230°
2026-04-07 14:15 41.66099 -23.96806 38001 ft 473 kts 230°
2026-04-07 14:16 41.61860 -24.03530 38001 ft 473 kts 230°
2026-04-07 14:16 41.57615 -24.10249 38001 ft 473 kts 230°
2026-04-07 14:17 41.53367 -24.16958 38001 ft 473 kts 230°
2026-04-07 14:17 41.49118 -24.23654 38001 ft 473 kts 230°
2026-04-07 14:18 41.44867 -24.30338 38001 ft 473 kts 230°
2026-04-07 14:18 41.40609 -24.37017 38001 ft 473 kts 230°
2026-04-07 14:19 41.36348 -24.43686 38001 ft 473 kts 230°
2026-04-07 14:19 41.32080 -24.50352 38001 ft 473 kts 230°
2026-04-07 14:20 41.27811 -24.57005 38001 ft 473 kts 230°
2026-04-07 14:20 41.23565 -24.63607 38001 ft 473 kts 230°
2026-04-07 14:21 41.19289 -24.70243 38001 ft 473 kts 230°
2026-04-07 14:21 41.15011 -24.76866 38001 ft 473 kts 229°
2026-04-07 14:22 41.10715 -24.83503 38001 ft 473 kts 229°
2026-04-07 14:22 41.06428 -24.90114 38001 ft 473 kts 229°
2026-04-07 14:23 41.02129 -24.96728 38001 ft 473 kts 229°
2026-04-07 14:23 40.98019 -25.03450 38005 ft 472 kts 234°
2026-04-07 14:24 40.94141 -25.10474 38001 ft 472 kts 234°
2026-04-07 14:24 40.90265 -25.17500 38002 ft 473 kts 234°
2026-04-07 14:25 40.86370 -25.24512 38001 ft 473 kts 234°
2026-04-07 14:25 40.82469 -25.31499 38001 ft 473 kts 233°
2026-04-07 14:26 40.78553 -25.38493 38001 ft 473 kts 233°
2026-04-07 14:26 40.74664 -25.45424 38001 ft 473 kts 233°
2026-04-07 14:27 40.70746 -25.52389 38001 ft 473 kts 233°
2026-04-07 14:27 40.66821 -25.59354 38001 ft 473 kts 233°
2026-04-07 14:28 40.62892 -25.66310 38001 ft 473 kts 233°
2026-04-07 14:28 40.58964 -25.73249 38001 ft 473 kts 233°
2026-04-07 14:29 40.55029 -25.80184 38001 ft 473 kts 233°
2026-04-07 14:29 40.51115 -25.87069 38001 ft 473 kts 233°
2026-04-07 14:30 40.47172 -25.93988 38001 ft 473 kts 233°
2026-04-07 14:30 40.43229 -26.00891 38001 ft 473 kts 233°
2026-04-07 14:31 40.39278 -26.07793 38001 ft 473 kts 233°
2026-04-07 14:31 40.35993 -26.13520 38001 ft 473 kts 233°
2026-04-07 14:32 40.32032 -26.20411 38001 ft 473 kts 233°
2026-04-07 14:32 40.28067 -26.27296 38001 ft 473 kts 233°
2026-04-07 14:33 40.24098 -26.34169 38001 ft 473 kts 233°
2026-04-07 14:33 40.20152 -26.40991 38001 ft 473 kts 233°
2026-04-07 14:34 40.16176 -26.47848 38001 ft 473 kts 233°
2026-04-07 14:34 40.12199 -26.54693 38001 ft 473 kts 233°
2026-04-07 14:35 40.08217 -26.61530 38001 ft 473 kts 233°
2026-04-07 14:35 40.04232 -26.68359 38001 ft 473 kts 233°
2026-04-07 14:36 40.00236 -26.75191 38001 ft 473 kts 233°
2026-04-07 14:36 39.96266 -26.81963 38001 ft 473 kts 233°
2026-04-07 14:37 39.92266 -26.88772 38001 ft 473 kts 232°
2026-04-07 14:37 39.88258 -26.95581 38001 ft 473 kts 232°
2026-04-07 14:38 39.84252 -27.02371 38001 ft 473 kts 232°
2026-04-07 14:38 39.80240 -27.09156 38001 ft 473 kts 232°
2026-04-07 14:39 39.74216 -27.19318 38001 ft 473 kts 232°
2026-04-07 14:40 39.70220 -27.26039 38001 ft 473 kts 232°
2026-04-07 14:40 39.66197 -27.32794 38001 ft 473 kts 232°
2026-04-07 14:41 39.62165 -27.39548 38001 ft 473 kts 232°
2026-04-07 14:41 39.58133 -27.46287 38001 ft 473 kts 232°
2026-04-07 14:42 39.54093 -27.53026 38001 ft 473 kts 232°
2026-04-07 14:42 39.50052 -27.59753 38001 ft 473 kts 232°
2026-04-07 14:43 39.46008 -27.66469 38001 ft 473 kts 232°
2026-04-07 14:43 39.41986 -27.73136 38001 ft 473 kts 232°
2026-04-07 14:44 39.37932 -27.79840 38001 ft 473 kts 232°
2026-04-07 14:44 39.33875 -27.86536 38001 ft 473 kts 232°
2026-04-07 14:45 39.29816 -27.93221 38001 ft 473 kts 232°
2026-04-07 14:45 39.25749 -27.99906 38001 ft 473 kts 232°
2026-04-07 14:46 39.21682 -28.06576 38001 ft 473 kts 232°
2026-04-07 14:46 39.17634 -28.13201 38001 ft 473 kts 232°
2026-04-07 14:47 39.13557 -28.19860 38001 ft 473 kts 232°
2026-04-07 14:47 39.09480 -28.26505 38001 ft 473 kts 232°
2026-04-07 14:48 39.05396 -28.33148 38001 ft 473 kts 232°
2026-04-07 14:48 39.01305 -28.39787 38001 ft 473 kts 232°
2026-04-07 14:49 38.97215 -28.46412 38001 ft 473 kts 232°
2026-04-07 14:49 38.93124 -28.53025 38001 ft 473 kts 231°
2026-04-07 14:50 38.89050 -28.59596 38001 ft 473 kts 231°
2026-04-07 14:50 38.84945 -28.66205 38001 ft 473 kts 231°
2026-04-07 14:51 38.80840 -28.72799 38001 ft 473 kts 231°
2026-04-07 14:51 38.76730 -28.79389 38001 ft 473 kts 231°
2026-04-07 14:52 38.72615 -28.85972 38001 ft 473 kts 231°
2026-04-07 14:52 38.68502 -28.92539 38001 ft 473 kts 231°
2026-04-07 14:53 38.64382 -28.99103 38001 ft 473 kts 231°
2026-04-07 14:53 38.60279 -29.05627 38001 ft 473 kts 231°
2026-04-07 14:54 38.56152 -29.12176 38001 ft 473 kts 231°
2026-04-07 14:54 38.52017 -29.18725 38001 ft 473 kts 231°
2026-04-07 14:55 38.47880 -29.25263 38001 ft 473 kts 231°
2026-04-07 14:55 38.43740 -29.31793 38001 ft 473 kts 231°
2026-04-07 14:56 38.39596 -29.38316 38001 ft 473 kts 231°
2026-04-07 14:56 38.35448 -29.44832 38001 ft 473 kts 231°
2026-04-07 14:57 38.31295 -29.51343 38001 ft 473 kts 231°
2026-04-07 14:57 38.27145 -29.57837 38001 ft 473 kts 231°
2026-04-07 14:58 38.23016 -29.64284 38001 ft 473 kts 231°
2026-04-07 14:58 38.18854 -29.70770 38001 ft 473 kts 231°
2026-04-07 14:59 38.14691 -29.77246 38001 ft 473 kts 231°
2026-04-07 14:59 38.10522 -29.83718 38001 ft 473 kts 231°
2026-04-07 15:00 38.06352 -29.90180 38001 ft 473 kts 231°
2026-04-07 15:00 38.02177 -29.96637 38001 ft 473 kts 231°
2026-04-07 15:01 37.98402 -30.03456 37996 ft 472 kts 241°
2026-04-07 15:01 37.95290 -30.10780 38006 ft 472 kts 242°
2026-04-07 15:02 37.92195 -30.18070 38001 ft 473 kts 242°
2026-04-07 15:02 37.89032 -30.25436 38002 ft 473 kts 241°
2026-04-07 15:03 37.85892 -30.32692 38001 ft 473 kts 241°
2026-04-07 15:03 37.82721 -30.39993 38001 ft 473 kts 241°
2026-04-07 15:04 37.79545 -30.47292 38001 ft 473 kts 241°
2026-04-07 15:04 37.76366 -30.54580 38001 ft 473 kts 241°
2026-04-07 15:05 37.73184 -30.61861 38001 ft 473 kts 241°
2026-04-07 15:05 37.70019 -30.69087 38001 ft 473 kts 241°
2026-04-07 15:06 37.66829 -30.76354 38001 ft 473 kts 241°
2026-04-07 15:06 37.63636 -30.83609 38001 ft 473 kts 241°
2026-04-07 15:07 37.60440 -30.90859 38001 ft 473 kts 241°
2026-04-07 15:07 37.57233 -30.98114 38001 ft 473 kts 241°
2026-04-07 15:08 37.54025 -31.05355 38001 ft 473 kts 241°
2026-04-07 15:08 37.50833 -31.12547 38001 ft 473 kts 241°
2026-04-07 15:09 37.47612 -31.19784 38001 ft 473 kts 241°
2026-04-07 15:09 37.44389 -31.27011 38001 ft 473 kts 240°
2026-04-07 15:10 37.41166 -31.34221 38001 ft 473 kts 240°
2026-04-07 15:10 37.37938 -31.41429 38001 ft 473 kts 240°
2026-04-07 15:11 37.34703 -31.48635 38001 ft 473 kts 240°
2026-04-07 15:11 37.31484 -31.55790 38001 ft 473 kts 240°
2026-04-07 15:12 37.28238 -31.62988 38001 ft 473 kts 240°
2026-04-07 15:12 37.24985 -31.70186 38001 ft 473 kts 240°
2026-04-07 15:13 37.21756 -31.77316 38001 ft 473 kts 240°
2026-04-07 15:13 37.18501 -31.84487 38001 ft 473 kts 240°
2026-04-07 15:14 37.15244 -31.91648 38001 ft 473 kts 240°
2026-04-07 15:14 37.11972 -31.98826 38001 ft 473 kts 240°
2026-04-07 15:15 37.08700 -32.05987 38001 ft 473 kts 240°
2026-04-07 15:15 37.05426 -32.13137 38001 ft 473 kts 240°
2026-04-07 15:16 37.02166 -32.20242 38001 ft 473 kts 240°
2026-04-07 15:16 36.98880 -32.27388 38001 ft 473 kts 240°
2026-04-07 15:17 36.95611 -32.34481 38001 ft 473 kts 240°
2026-04-07 15:17 36.92322 -32.41603 38001 ft 473 kts 240°
2026-04-07 15:18 36.89030 -32.48715 38001 ft 473 kts 240°
2026-04-07 15:18 36.85730 -32.55829 38001 ft 473 kts 240°
2026-04-07 15:19 36.82428 -32.62934 38001 ft 473 kts 240°
2026-04-07 15:19 36.79115 -32.70045 38001 ft 473 kts 240°
2026-04-07 15:20 36.75825 -32.77093 38001 ft 473 kts 240°
2026-04-07 15:20 36.72509 -32.84180 38001 ft 473 kts 240°
2026-04-07 15:21 36.69728 -32.90115 38001 ft 473 kts 240°
2026-04-07 15:21 36.66421 -32.97156 38001 ft 473 kts 240°
2026-04-07 15:22 36.63092 -33.04229 38001 ft 473 kts 239°
2026-04-07 15:22 36.59763 -33.11288 38001 ft 473 kts 239°
2026-04-07 15:23 36.56425 -33.18349 38001 ft 473 kts 239°
2026-04-07 15:23 36.53104 -33.25361 38001 ft 473 kts 239°
2026-04-07 15:24 36.49759 -33.32409 38001 ft 473 kts 239°
2026-04-07 15:24 36.46409 -33.39452 38001 ft 473 kts 239°
2026-04-07 15:25 36.43058 -33.46483 38001 ft 473 kts 239°
2026-04-07 15:25 36.39697 -33.53519 38001 ft 473 kts 239°
2026-04-07 15:26 36.36335 -33.60544 38001 ft 473 kts 239°
2026-04-07 15:26 36.32969 -33.67562 38001 ft 473 kts 239°
2026-04-07 15:27 36.29619 -33.74533 38001 ft 473 kts 239°
2026-04-07 15:27 36.26246 -33.81536 38001 ft 473 kts 239°
2026-04-07 15:28 36.22865 -33.88541 38001 ft 473 kts 239°
2026-04-07 15:28 36.19482 -33.95536 38001 ft 473 kts 239°
2026-04-07 15:29 36.16095 -34.02525 38001 ft 473 kts 239°
2026-04-07 15:29 36.12706 -34.09504 38001 ft 473 kts 239°
2026-04-07 15:30 36.09313 -34.16477 38001 ft 473 kts 239°
2026-04-07 15:30 36.05913 -34.23448 38001 ft 473 kts 239°
2026-04-07 15:31 36.02535 -34.30364 38001 ft 473 kts 239°
2026-04-07 15:31 35.99128 -34.37321 38001 ft 473 kts 239°
2026-04-07 15:32 35.95718 -34.44272 38001 ft 473 kts 239°
2026-04-07 15:32 35.92303 -34.51218 38001 ft 473 kts 239°
2026-04-07 15:33 35.88881 -34.58165 38001 ft 473 kts 239°
2026-04-07 15:33 35.85459 -34.65097 38001 ft 473 kts 239°
2026-04-07 15:34 35.82055 -34.71980 38001 ft 473 kts 239°
2026-04-07 15:34 35.78625 -34.78900 38001 ft 473 kts 239°
2026-04-07 15:35 35.75190 -34.85818 38001 ft 473 kts 238°
2026-04-07 15:35 35.71750 -34.92730 38001 ft 473 kts 238°
2026-04-07 15:36 35.68309 -34.99632 38001 ft 473 kts 238°
2026-04-07 15:36 35.64863 -35.06529 38001 ft 473 kts 238°
2026-04-07 15:37 35.61411 -35.13423 38001 ft 473 kts 238°
2026-04-07 15:37 35.57956 -35.20312 38001 ft 473 kts 238°
2026-04-07 15:38 35.54497 -35.27194 38001 ft 473 kts 238°
2026-04-07 15:38 35.51033 -35.34071 38001 ft 473 kts 238°
2026-04-07 15:39 35.47591 -35.40893 38001 ft 473 kts 238°
2026-04-07 15:39 35.44120 -35.47758 38001 ft 473 kts 238°
2026-04-07 15:40 35.40646 -35.54614 38001 ft 473 kts 238°
2026-04-07 15:40 35.37166 -35.61471 38001 ft 473 kts 238°
2026-04-07 15:41 35.33683 -35.68318 38001 ft 473 kts 238°
2026-04-07 15:41 35.30198 -35.75156 38001 ft 473 kts 238°
2026-04-07 15:42 35.26707 -35.81992 38001 ft 473 kts 238°
2026-04-07 15:42 35.21484 -35.92195 38001 ft 473 kts 238°
2026-04-07 15:43 35.17984 -35.99017 38001 ft 473 kts 238°
2026-04-07 15:43 35.14480 -36.05832 38001 ft 473 kts 238°
2026-04-07 15:44 35.10972 -36.12642 38001 ft 473 kts 238°
2026-04-07 15:44 35.07458 -36.19450 38001 ft 473 kts 238°
2026-04-07 15:45 35.03965 -36.26203 38001 ft 473 kts 238°
2026-04-07 15:45 35.00444 -36.33000 38001 ft 473 kts 238°
2026-04-07 15:46 34.96918 -36.39790 38001 ft 473 kts 238°
2026-04-07 15:46 34.93393 -36.46568 38001 ft 473 kts 238°
2026-04-07 15:47 34.89862 -36.53343 38001 ft 473 kts 238°
2026-04-07 15:47 34.86329 -36.60109 38001 ft 473 kts 238°
2026-04-07 15:48 34.82814 -36.66828 38001 ft 473 kts 237°
2026-04-07 15:48 34.79272 -36.73586 38001 ft 473 kts 237°
2026-04-07 15:49 34.75726 -36.80338 38001 ft 473 kts 237°
2026-04-07 15:49 34.72178 -36.87081 38001 ft 473 kts 237°
2026-04-07 15:50 34.68626 -36.93818 38001 ft 473 kts 237°
2026-04-07 15:50 34.65067 -37.00557 38001 ft 473 kts 237°
2026-04-07 15:51 34.61522 -37.07257 38001 ft 473 kts 237°
2026-04-07 15:51 34.57955 -37.13985 38001 ft 473 kts 237°
2026-04-07 15:52 34.54388 -37.20699 38001 ft 473 kts 237°
2026-04-07 15:52 34.50814 -37.27416 38001 ft 473 kts 237°
2026-04-07 15:53 34.47238 -37.34123 38001 ft 473 kts 237°
2026-04-07 15:53 34.43660 -37.40820 38001 ft 473 kts 237°
2026-04-07 15:54 34.40076 -37.47516 38001 ft 473 kts 237°
2026-04-07 15:54 34.36489 -37.54206 38001 ft 473 kts 237°
2026-04-07 15:55 34.32900 -37.60886 38001 ft 473 kts 237°
2026-04-07 15:55 34.29332 -37.67517 38001 ft 473 kts 237°
2026-04-07 15:56 34.25732 -37.74193 38001 ft 473 kts 237°
2026-04-07 15:56 34.22132 -37.80857 38001 ft 473 kts 237°
2026-04-07 15:57 34.18531 -37.87511 38001 ft 473 kts 237°
2026-04-07 15:57 34.14922 -37.94167 38001 ft 473 kts 237°
2026-04-07 15:58 34.11311 -38.00814 38001 ft 473 kts 237°
2026-04-07 15:58 34.07697 -38.07455 38001 ft 473 kts 237°
2026-04-07 15:59 34.04075 -38.14098 38001 ft 473 kts 237°
2026-04-07 15:59 34.00456 -38.20723 38001 ft 473 kts 237°
2026-04-07 16:00 33.96831 -38.27348 38001 ft 473 kts 237°
2026-04-07 16:00 33.93203 -38.33967 38001 ft 473 kts 237°
2026-04-07 16:01 33.89591 -38.40543 38001 ft 473 kts 237°
2026-04-07 16:01 33.85947 -38.47164 38001 ft 473 kts 237°
2026-04-07 16:02 33.82304 -38.53774 38001 ft 473 kts 236°
2026-04-07 16:02 33.78660 -38.60373 38001 ft 473 kts 236°
2026-04-07 16:03 33.75034 -38.66927 38001 ft 473 kts 236°
2026-04-07 16:03 33.71378 -38.73523 38001 ft 473 kts 236°
2026-04-07 16:04 33.67725 -38.80102 38001 ft 473 kts 236°
2026-04-07 16:04 33.64071 -38.86671 38001 ft 473 kts 236°
2026-04-07 16:05 33.60407 -38.93247 38001 ft 473 kts 236°
2026-04-07 16:05 33.56744 -38.99809 38001 ft 473 kts 236°
2026-04-07 16:06 33.53097 -39.06329 38001 ft 473 kts 236°
2026-04-07 16:06 33.49425 -39.12884 38001 ft 473 kts 236°
2026-04-07 16:07 33.45750 -39.19433 38001 ft 473 kts 236°
2026-04-07 16:07 33.42695 -39.24868 38001 ft 473 kts 236°
2026-04-07 16:08 33.39015 -39.31403 38001 ft 473 kts 236°
2026-04-07 16:08 33.35325 -39.37944 38001 ft 473 kts 236°
2026-04-07 16:09 33.31638 -39.44468 38001 ft 473 kts 236°
2026-04-07 16:09 33.27969 -39.50951 38001 ft 473 kts 236°
2026-04-07 16:10 33.24275 -39.57465 38001 ft 473 kts 236°
2026-04-07 16:10 33.20576 -39.63976 38001 ft 473 kts 236°
2026-04-07 16:11 33.16877 -39.70478 38001 ft 473 kts 236°
2026-04-07 16:11 33.13173 -39.76975 38001 ft 473 kts 236°
2026-04-07 16:12 33.09463 -39.83474 38001 ft 473 kts 236°
2026-04-07 16:12 33.05751 -39.89964 38001 ft 473 kts 236°
2026-04-07 16:13 33.02036 -39.96449 38001 ft 473 kts 236°
2026-04-07 16:13 32.98776 -40.03244 37999 ft 473 kts 247°
2026-04-07 16:14 32.96292 -40.10498 38004 ft 473 kts 248°
2026-04-07 16:14 32.93839 -40.17712 38001 ft 473 kts 248°
2026-04-07 16:15 32.91342 -40.24960 38002 ft 473 kts 248°
2026-04-07 16:15 32.88823 -40.32202 38001 ft 473 kts 248°
2026-04-07 16:16 32.86295 -40.39439 38001 ft 473 kts 248°
2026-04-07 16:16 32.83763 -40.46672 38001 ft 473 kts 247°
2026-04-07 16:17 32.81229 -40.53897 38001 ft 473 kts 247°
2026-04-07 16:17 32.78691 -40.61120 38001 ft 473 kts 247°
2026-04-07 16:18 32.76165 -40.68295 38001 ft 473 kts 247°
2026-04-07 16:18 32.73617 -40.75512 38001 ft 473 kts 247°
2026-04-07 16:19 32.71063 -40.82733 38001 ft 473 kts 247°
2026-04-07 16:19 32.68512 -40.89929 38001 ft 473 kts 247°
2026-04-07 16:20 32.65969 -40.97089 38001 ft 473 kts 247°
2026-04-07 16:20 32.63407 -41.04285 38001 ft 473 kts 247°
2026-04-07 16:21 32.60844 -41.11466 38001 ft 473 kts 247°
2026-04-07 16:21 32.58273 -41.18657 38001 ft 473 kts 247°
2026-04-07 16:22 32.55696 -41.25849 38001 ft 473 kts 247°
2026-04-07 16:22 32.53135 -41.32982 38001 ft 473 kts 247°
2026-04-07 16:23 32.50553 -41.40154 38001 ft 473 kts 247°
2026-04-07 16:23 32.47968 -41.47322 38001 ft 473 kts 247°
2026-04-07 16:24 32.45379 -41.54486 38001 ft 473 kts 247°
2026-04-07 16:24 32.42784 -41.61650 38001 ft 473 kts 247°
2026-04-07 16:25 32.40183 -41.68813 38001 ft 473 kts 247°
2026-04-07 16:25 32.37583 -41.75961 38001 ft 473 kts 247°
2026-04-07 16:26 32.34995 -41.83060 38001 ft 473 kts 246°
2026-04-07 16:26 32.32386 -41.90203 38001 ft 473 kts 246°
2026-04-07 16:27 32.29772 -41.97342 38001 ft 473 kts 246°
2026-04-07 16:27 32.27156 -42.04473 38001 ft 473 kts 246°
2026-04-07 16:28 32.24533 -42.11608 38001 ft 473 kts 246°
2026-04-07 16:28 32.21908 -42.18734 38001 ft 473 kts 246°
2026-04-07 16:29 32.19278 -42.25857 38001 ft 473 kts 246°
2026-04-07 16:29 32.16644 -42.32979 38001 ft 473 kts 246°
2026-04-07 16:30 32.14004 -42.40098 38001 ft 473 kts 246°
2026-04-07 16:30 32.11360 -42.47216 38001 ft 473 kts 246°
2026-04-07 16:31 32.08729 -42.54282 38001 ft 473 kts 246°
2026-04-07 16:31 32.06081 -42.61382 38001 ft 473 kts 246°
2026-04-07 16:32 32.03426 -42.68483 38001 ft 473 kts 246°
2026-04-07 16:32 32.00765 -42.75588 38001 ft 473 kts 246°
2026-04-07 16:33 31.98103 -42.82679 38001 ft 473 kts 246°
2026-04-07 16:33 31.95438 -42.89765 38001 ft 473 kts 246°
2026-04-07 16:34 31.92767 -42.96852 38001 ft 473 kts 246°
2026-04-07 16:34 31.90110 -43.03884 38001 ft 473 kts 246°
2026-04-07 16:35 31.87429 -43.10969 38001 ft 473 kts 246°
2026-04-07 16:35 31.84748 -43.18038 38001 ft 473 kts 246°
2026-04-07 16:36 31.82062 -43.25106 38001 ft 473 kts 246°
2026-04-07 16:36 31.79374 -43.32166 38001 ft 473 kts 246°
2026-04-07 16:37 31.76682 -43.39223 38001 ft 473 kts 246°
2026-04-07 16:37 31.73984 -43.46279 38001 ft 473 kts 246°
2026-04-07 16:38 31.71285 -43.53323 38001 ft 473 kts 246°
2026-04-07 16:38 31.68579 -43.60371 38001 ft 473 kts 246°
2026-04-07 16:39 31.65871 -43.67411 38001 ft 473 kts 246°
2026-04-07 16:39 31.63176 -43.74404 38001 ft 473 kts 246°
2026-04-07 16:40 31.60458 -43.81443 38001 ft 473 kts 245°
2026-04-07 16:40 31.57740 -43.88467 38001 ft 473 kts 245°
2026-04-07 16:41 31.55014 -43.95498 38001 ft 473 kts 245°
2026-04-07 16:41 31.52286 -44.02517 38001 ft 473 kts 245°
2026-04-07 16:42 31.49552 -44.09541 38001 ft 473 kts 245°
2026-04-07 16:42 31.46818 -44.16551 38001 ft 473 kts 245°
2026-04-07 16:43 31.44094 -44.23520 38001 ft 473 kts 245°
2026-04-07 16:43 31.41352 -44.30523 38001 ft 473 kts 245°
2026-04-07 16:44 31.38606 -44.37521 38001 ft 473 kts 245°
2026-04-07 16:44 31.35854 -44.44521 38001 ft 473 kts 245°
2026-04-07 16:45 31.33100 -44.51511 38001 ft 473 kts 245°
2026-04-07 16:45 31.30341 -44.58501 38001 ft 473 kts 245°
2026-04-07 16:46 31.27596 -44.65444 38001 ft 473 kts 245°
2026-04-07 16:46 31.24829 -44.72426 38001 ft 473 kts 245°
2026-04-07 16:47 31.22060 -44.79400 38001 ft 473 kts 245°
2026-04-07 16:47 31.19288 -44.86370 38001 ft 473 kts 245°
2026-04-07 16:48 31.16512 -44.93336 38001 ft 473 kts 245°
2026-04-07 16:49 31.12338 -45.03781 38001 ft 473 kts 245°
2026-04-07 16:49 31.09550 -45.10745 38001 ft 473 kts 245°
2026-04-07 16:50 31.06760 -45.17696 38001 ft 473 kts 245°
2026-04-07 16:50 31.03964 -45.24651 38001 ft 473 kts 245°
2026-04-07 16:51 31.01183 -45.31556 38001 ft 473 kts 245°
2026-04-07 16:51 30.98381 -45.38499 38001 ft 473 kts 245°
2026-04-07 16:52 30.95574 -45.45442 38001 ft 473 kts 245°
2026-04-07 16:52 30.92763 -45.52381 38001 ft 473 kts 245°
2026-04-07 16:53 30.89948 -45.59315 38001 ft 473 kts 245°
2026-04-07 16:53 30.87150 -45.66196 38001 ft 473 kts 245°
2026-04-07 16:54 30.84328 -45.73122 38001 ft 473 kts 245°
2026-04-07 16:54 30.81505 -45.80037 38001 ft 473 kts 245°
2026-04-07 16:55 30.78678 -45.86952 38001 ft 473 kts 244°
2026-04-07 16:55 30.76325 -45.92695 38001 ft 473 kts 244°
2026-04-07 16:56 30.73493 -45.99594 38001 ft 473 kts 244°
2026-04-07 16:56 30.70654 -46.06501 38001 ft 473 kts 244°
2026-04-07 16:57 30.67815 -46.13392 38001 ft 473 kts 244°
2026-04-07 16:57 30.64987 -46.20245 38001 ft 473 kts 244°
2026-04-07 16:58 30.62136 -46.27139 38001 ft 473 kts 244°
2026-04-07 16:58 30.59282 -46.34030 38001 ft 473 kts 244°
2026-04-07 16:59 30.56426 -46.40912 38001 ft 473 kts 244°
2026-04-07 16:59 30.53584 -46.47749 38001 ft 473 kts 244°
2026-04-07 17:00 30.50720 -46.54623 38001 ft 473 kts 244°
2026-04-07 17:00 30.47854 -46.61490 38001 ft 473 kts 244°
2026-04-07 17:01 30.44984 -46.68356 38001 ft 473 kts 244°
2026-04-07 17:01 30.42112 -46.75213 38001 ft 473 kts 244°
2026-04-07 17:02 30.39232 -46.82077 38001 ft 473 kts 244°
2026-04-07 17:02 30.36352 -46.88927 38001 ft 473 kts 244°
2026-04-07 17:03 30.33466 -46.95781 38001 ft 473 kts 244°
2026-04-07 17:03 30.30579 -47.02623 38001 ft 473 kts 244°
2026-04-07 17:04 30.27701 -47.09431 38001 ft 473 kts 244°
2026-04-07 17:04 30.24809 -47.16262 38001 ft 473 kts 244°
2026-04-07 17:05 30.21911 -47.23092 38001 ft 473 kts 244°
2026-04-07 17:05 30.19007 -47.29926 38001 ft 473 kts 244°
2026-04-07 17:06 30.16102 -47.36748 38001 ft 473 kts 244°
2026-04-07 17:06 30.13192 -47.43569 38001 ft 473 kts 244°
2026-04-07 17:07 30.10281 -47.50383 38001 ft 473 kts 244°
2026-04-07 17:07 30.07362 -47.57200 38001 ft 473 kts 244°
2026-04-07 17:08 30.04445 -47.64003 38001 ft 473 kts 244°
2026-04-07 17:08 30.01523 -47.70804 38001 ft 473 kts 244°
2026-04-07 17:09 29.98596 -47.77606 38001 ft 473 kts 244°
2026-04-07 17:09 29.95685 -47.84359 38001 ft 473 kts 244°
2026-04-07 17:10 29.92751 -47.91152 38001 ft 473 kts 244°
2026-04-07 17:10 29.89815 -47.97938 38001 ft 473 kts 243°
2026-04-07 17:11 29.86875 -48.04720 38001 ft 473 kts 243°
2026-04-07 17:11 29.83927 -48.11509 38001 ft 473 kts 243°
2026-04-07 17:12 29.80983 -48.18278 38001 ft 473 kts 243°
2026-04-07 17:12 29.78047 -48.25015 38001 ft 473 kts 243°
2026-04-07 17:13 29.75094 -48.31780 38001 ft 473 kts 243°
2026-04-07 17:13 29.72136 -48.38546 38001 ft 473 kts 243°
2026-04-07 17:14 29.69177 -48.45300 38001 ft 473 kts 243°
2026-04-07 17:14 29.66207 -48.52069 38001 ft 473 kts 243°
2026-04-07 17:15 29.63253 -48.58789 38001 ft 473 kts 243°
2026-04-07 17:15 29.60285 -48.65531 38001 ft 473 kts 243°
2026-04-07 17:16 29.57311 -48.72272 38001 ft 473 kts 243°
2026-04-07 17:16 29.54334 -48.79010 38001 ft 473 kts 243°
2026-04-07 17:17 29.51348 -48.85755 38001 ft 473 kts 243°
2026-04-07 17:17 29.48358 -48.92500 38001 ft 473 kts 243°
2026-04-07 17:18 29.45369 -48.99229 38001 ft 473 kts 243°
2026-04-07 17:18 29.42395 -49.05914 38001 ft 473 kts 243°
2026-04-07 17:19 29.39399 -49.12636 38001 ft 473 kts 243°
2026-04-07 17:19 29.36400 -49.19354 38001 ft 473 kts 243°
2026-04-07 17:20 29.33398 -49.26067 38001 ft 473 kts 243°
2026-04-07 17:20 29.30392 -49.32777 38001 ft 473 kts 243°
2026-04-07 17:21 29.27381 -49.39486 38001 ft 473 kts 243°
2026-04-07 17:21 29.24390 -49.46140 38001 ft 473 kts 243°
2026-04-07 17:22 29.21373 -49.52841 38001 ft 473 kts 243°
2026-04-07 17:22 29.18356 -49.59531 38001 ft 473 kts 243°
2026-04-07 17:23 29.15332 -49.66225 38001 ft 473 kts 243°
2026-04-07 17:23 29.12326 -49.72868 38001 ft 473 kts 243°
2026-04-07 17:24 29.09298 -49.79549 38001 ft 473 kts 243°
2026-04-07 17:24 29.06266 -49.86227 38001 ft 473 kts 243°
2026-04-07 17:25 29.03232 -49.92902 38001 ft 473 kts 243°
2026-04-07 17:25 29.00193 -49.99564 38001 ft 473 kts 242°
2026-04-07 17:26 28.96848 -50.06027 38003 ft 473 kts 238°
2026-04-07 17:26 28.93388 -50.12408 38001 ft 473 kts 238°
2026-04-07 17:27 28.89924 -50.18797 38002 ft 473 kts 238°
2026-04-07 17:27 28.86475 -50.25191 38001 ft 473 kts 238°
2026-04-07 17:28 28.83031 -50.31587 38001 ft 473 kts 238°
2026-04-07 17:28 28.79582 -50.37983 38001 ft 473 kts 238°
2026-04-07 17:29 28.76130 -50.44375 38001 ft 473 kts 238°
2026-04-07 17:29 28.72677 -50.50758 38001 ft 473 kts 238°
2026-04-07 17:30 28.69221 -50.57136 38001 ft 473 kts 238°
2026-04-07 17:30 28.65763 -50.63510 38001 ft 473 kts 238°
2026-04-07 17:31 28.62303 -50.69876 38001 ft 473 kts 238°
2026-04-07 17:31 28.58840 -50.76237 38001 ft 473 kts 238°
2026-04-07 17:32 28.55392 -50.82563 38028 ft 475 kts 238°
2026-04-07 17:32 28.53647 -50.85760 38213 ft 476 kts 238°
2026-04-07 17:32 28.51902 -50.88956 38494 ft 475 kts 238°
2026-04-07 17:32 28.50161 -50.92140 38798 ft 474 kts 238°
2026-04-07 17:33 28.48422 -50.95320 39069 ft 473 kts 238°
2026-04-07 17:33 28.46685 -50.98492 39304 ft 473 kts 238°
2026-04-07 17:33 28.44945 -51.01668 39513 ft 473 kts 238°
2026-04-07 17:33 28.43202 -51.04848 39725 ft 473 kts 238°
2026-04-07 17:34 28.41461 -51.08021 39901 ft 473 kts 238°
2026-04-07 17:34 28.37980 -51.14358 39997 ft 476 kts 238°
2026-04-07 17:35 28.34481 -51.20719 39993 ft 473 kts 238°
2026-04-07 17:35 28.30999 -51.27040 39999 ft 471 kts 238°
2026-04-07 17:36 28.27529 -51.33328 39999 ft 470 kts 238°
2026-04-07 17:36 28.24058 -51.39610 40003 ft 470 kts 238°
2026-04-07 17:37 28.20574 -51.45906 40002 ft 472 kts 238°
2026-04-07 17:37 28.17078 -51.52215 40002 ft 473 kts 238°
2026-04-07 17:38 28.13592 -51.58496 40001 ft 474 kts 238°
2026-04-07 17:38 28.10078 -51.64817 40004 ft 474 kts 238°
2026-04-07 17:39 28.06558 -51.71140 40000 ft 474 kts 238°
2026-04-07 17:39 28.03036 -51.77459 40003 ft 474 kts 238°
2026-04-07 17:40 27.99512 -51.83772 40000 ft 474 kts 238°
2026-04-07 17:40 27.95989 -51.90072 40000 ft 474 kts 238°
2026-04-07 17:41 27.92490 -51.96321 40001 ft 473 kts 238°
2026-04-07 17:41 27.88962 -52.02612 40001 ft 473 kts 238°
2026-04-07 17:42 27.85435 -52.08893 40000 ft 473 kts 238°
2026-04-07 17:42 27.81909 -52.15163 40004 ft 473 kts 238°
2026-04-07 17:43 27.78971 -52.20379 40001 ft 473 kts 238°
2026-04-07 17:43 27.75437 -52.26646 40000 ft 473 kts 237°
2026-04-07 17:44 27.71325 -52.33927 40002 ft 473 kts 237°
2026-04-07 17:44 27.68355 -52.39178 40000 ft 473 kts 237°
2026-04-07 17:45 27.64808 -52.45442 40002 ft 473 kts 237°
2026-04-07 17:45 27.61279 -52.51663 40000 ft 473 kts 237°
2026-04-07 17:46 27.57727 -52.57918 40000 ft 473 kts 237°
2026-04-07 17:46 27.54174 -52.64165 40000 ft 473 kts 237°
2026-04-07 17:47 27.50616 -52.70410 40000 ft 473 kts 237°
2026-04-07 17:47 27.47053 -52.76656 40002 ft 473 kts 237°
2026-04-07 17:48 27.43516 -52.82848 40002 ft 473 kts 237°
2026-04-07 17:48 27.39948 -52.89085 40000 ft 473 kts 237°
2026-04-07 17:49 27.36379 -52.95316 40000 ft 473 kts 237°
2026-04-07 17:49 27.32810 -53.01537 40001 ft 473 kts 237°
2026-04-07 17:50 27.29238 -53.07755 40000 ft 473 kts 237°
2026-04-07 17:50 27.25662 -53.13970 40002 ft 473 kts 237°
2026-04-07 17:51 27.22082 -53.20185 40000 ft 473 kts 237°
2026-04-07 17:51 27.18523 -53.26354 40003 ft 473 kts 237°
2026-04-07 17:52 27.14932 -53.32570 40000 ft 473 kts 237°
2026-04-07 17:52 27.11344 -53.38771 40002 ft 473 kts 237°
2026-04-07 17:53 27.07754 -53.44968 40003 ft 473 kts 237°
2026-04-07 17:53 27.02363 -53.54258 40001 ft 473 kts 237°
2026-04-07 17:54 26.98764 -53.60447 40000 ft 473 kts 237°
2026-04-07 17:54 26.95166 -53.66629 40002 ft 473 kts 237°
2026-04-07 17:55 26.91588 -53.72766 40001 ft 473 kts 237°
2026-04-07 17:55 26.87980 -53.78946 40001 ft 473 kts 237°
2026-04-07 17:56 26.84371 -53.85120 40000 ft 473 kts 237°
2026-04-07 17:56 26.80763 -53.91283 40002 ft 473 kts 237°
2026-04-07 17:57 26.77150 -53.97445 40002 ft 473 kts 237°
2026-04-07 17:57 26.73535 -54.03604 40000 ft 473 kts 237°
2026-04-07 17:58 26.69917 -54.09758 40003 ft 473 kts 237°
2026-04-07 17:58 26.66297 -54.15909 40002 ft 473 kts 237°
2026-04-07 17:59 26.62673 -54.22057 40003 ft 473 kts 237°
2026-04-07 17:59 26.59043 -54.28207 40002 ft 473 kts 237°
2026-04-07 18:00 26.55437 -54.34309 40001 ft 473 kts 237°
2026-04-07 18:00 26.51804 -54.40447 40002 ft 473 kts 237°
2026-04-07 18:01 26.48169 -54.46580 40002 ft 473 kts 237°
2026-04-07 18:01 26.44533 -54.52708 40003 ft 473 kts 237°
2026-04-07 18:02 26.40891 -54.58836 40000 ft 473 kts 236°
2026-04-07 18:02 26.37250 -54.64956 40000 ft 473 kts 236°
2026-04-07 18:03 26.33596 -54.71087 40000 ft 473 kts 236°
2026-04-07 18:03 26.29947 -54.77203 40002 ft 473 kts 236°
2026-04-07 18:04 26.26298 -54.83312 40001 ft 473 kts 236°
2026-04-07 18:04 26.22669 -54.89377 40000 ft 473 kts 236°
2026-04-07 18:05 26.19012 -54.95481 40001 ft 473 kts 236°
2026-04-07 18:05 26.15356 -55.01576 40002 ft 474 kts 236°
2026-04-07 18:06 26.11694 -55.07674 40000 ft 474 kts 236°
2026-04-07 18:06 26.08031 -55.13764 40002 ft 474 kts 236°
2026-04-07 18:07 26.04365 -55.19851 40004 ft 474 kts 236°
2026-04-07 18:07 26.00696 -55.25936 40002 ft 474 kts 236°
2026-04-07 18:08 25.97025 -55.32015 40000 ft 474 kts 236°
2026-04-07 18:08 25.93349 -55.38096 40002 ft 474 kts 236°
2026-04-07 18:09 25.89695 -55.44131 40000 ft 474 kts 236°
2026-04-07 18:09 25.86015 -55.50201 40001 ft 474 kts 236°
2026-04-07 18:10 25.82331 -55.56270 40000 ft 474 kts 236°
2026-04-07 18:10 25.78648 -55.62330 40002 ft 474 kts 236°
2026-04-07 18:11 25.74958 -55.68394 40001 ft 474 kts 236°
2026-04-07 18:11 25.71269 -55.74448 40000 ft 474 kts 236°
2026-04-07 18:12 25.67574 -55.80503 40002 ft 474 kts 236°
2026-04-07 18:12 25.63903 -55.86512 40000 ft 474 kts 236°
2026-04-07 18:13 25.60209 -55.92551 40003 ft 474 kts 236°
2026-04-07 18:13 25.56505 -55.98598 40002 ft 474 kts 236°
2026-04-07 18:14 25.52804 -56.04632 40001 ft 474 kts 236°
2026-04-07 18:14 25.49098 -56.10666 40000 ft 474 kts 236°
2026-04-07 18:15 25.45390 -56.16697 40000 ft 474 kts 236°
2026-04-07 18:15 25.41680 -56.22724 40000 ft 474 kts 236°
2026-04-07 18:16 25.37967 -56.28745 40000 ft 474 kts 236°
2026-04-07 18:16 25.34276 -56.34726 40000 ft 474 kts 236°
2026-04-07 18:17 25.30559 -56.40740 40002 ft 474 kts 236°
2026-04-07 18:17 25.26841 -56.46749 40002 ft 474 kts 236°
2026-04-07 18:18 25.23119 -56.52755 40002 ft 474 kts 236°
2026-04-07 18:18 25.19394 -56.58759 40000 ft 474 kts 236°
2026-04-07 18:19 25.15665 -56.64763 40000 ft 474 kts 236°
2026-04-07 18:19 25.11938 -56.70755 40001 ft 474 kts 236°
2026-04-07 18:20 25.08205 -56.76749 40000 ft 474 kts 236°
2026-04-07 18:20 25.04494 -56.82701 40000 ft 474 kts 236°
2026-04-07 18:21 25.00758 -56.88685 40002 ft 474 kts 236°
2026-04-07 18:21 24.97018 -56.94670 40000 ft 474 kts 236°
2026-04-07 18:22 24.93272 -57.00654 40002 ft 474 kts 236°
2026-04-07 18:22 24.89530 -57.06626 40000 ft 474 kts 235°
2026-04-07 18:23 24.85784 -57.12598 40001 ft 474 kts 235°
2026-04-07 18:23 24.82056 -57.18531 40003 ft 474 kts 235°
2026-04-07 18:24 24.78300 -57.24503 40003 ft 474 kts 235°
2026-04-07 18:24 24.74545 -57.30465 40000 ft 474 kts 235°
2026-04-07 18:25 24.70791 -57.36420 40001 ft 474 kts 235°
2026-04-07 18:25 24.67028 -57.42381 40000 ft 474 kts 235°
2026-04-07 18:26 24.63289 -57.48296 40001 ft 474 kts 235°
2026-04-07 18:26 24.59527 -57.54241 40000 ft 474 kts 235°
2026-04-07 18:27 24.55762 -57.60183 40001 ft 474 kts 235°
2026-04-07 18:27 24.51988 -57.66132 40001 ft 474 kts 235°
2026-04-07 18:28 24.48213 -57.72075 40001 ft 474 kts 235°
2026-04-07 18:28 24.44461 -57.77976 40002 ft 474 kts 235°
2026-04-07 18:29 24.40681 -57.83912 40000 ft 474 kts 235°
2026-04-07 18:29 24.36903 -57.89839 40000 ft 474 kts 235°
2026-04-07 18:30 24.33124 -57.95761 40000 ft 474 kts 235°
2026-04-07 18:30 24.29342 -58.01678 40002 ft 474 kts 235°
2026-04-07 18:31 24.26198 -58.06593 40000 ft 474 kts 235°
2026-04-07 18:31 24.22412 -58.12505 40000 ft 474 kts 235°
2026-04-07 18:32 24.18625 -58.18411 40000 ft 474 kts 235°
2026-04-07 18:32 24.14835 -58.24316 40000 ft 474 kts 235°
2026-04-07 18:33 24.11039 -58.30222 40001 ft 474 kts 235°
2026-04-07 18:33 24.07242 -58.36123 40002 ft 474 kts 235°
2026-04-07 18:34 24.03470 -58.41978 40004 ft 474 kts 235°
2026-04-07 18:34 23.99667 -58.47874 40001 ft 474 kts 235°
2026-04-07 18:35 23.95862 -58.53766 40003 ft 474 kts 235°
2026-04-07 18:35 23.92056 -58.59653 40002 ft 474 kts 235°
2026-04-07 18:36 23.88266 -58.65508 40005 ft 474 kts 235°
2026-04-07 18:36 23.84452 -58.71393 40002 ft 474 kts 235°
2026-04-07 18:37 23.80641 -58.77267 40003 ft 474 kts 234°
2026-04-07 18:37 23.76826 -58.83140 40000 ft 474 kts 234°
2026-04-07 18:38 23.73008 -58.89012 40001 ft 474 kts 234°
2026-04-07 18:38 23.69191 -58.94874 40000 ft 474 kts 234°
2026-04-07 18:39 23.65371 -59.00735 40000 ft 474 kts 234°
2026-04-07 18:39 23.61545 -59.06597 40001 ft 474 kts 234°
2026-04-07 18:40 23.57746 -59.12412 40002 ft 474 kts 234°
2026-04-07 18:40 23.53915 -59.18268 40002 ft 474 kts 234°
2026-04-07 18:41 23.50085 -59.24118 40003 ft 474 kts 234°
2026-04-07 18:41 23.46253 -59.29962 40000 ft 474 kts 234°
2026-04-07 18:42 23.42416 -59.35809 40002 ft 474 kts 234°
2026-04-07 18:42 23.38580 -59.41646 40001 ft 474 kts 234°
2026-04-07 18:43 23.34768 -59.47441 40003 ft 474 kts 234°
2026-04-07 18:43 23.30926 -59.53274 40000 ft 474 kts 234°
2026-04-07 18:44 23.27077 -59.59112 40001 ft 474 kts 234°
2026-04-07 18:44 23.23232 -59.64937 40001 ft 474 kts 234°
2026-04-07 18:45 23.19383 -59.70762 40000 ft 474 kts 234°
2026-04-07 18:45 23.15529 -59.76587 40000 ft 474 kts 234°
2026-04-07 18:46 23.11705 -59.82361 40000 ft 474 kts 234°
2026-04-07 18:46 23.07854 -59.88170 40000 ft 474 kts 234°
2026-04-07 18:47 23.03999 -59.93980 40001 ft 474 kts 234°
2026-04-07 18:47 23.00140 -59.99787 40001 ft 474 kts 234°
2026-04-07 18:48 22.96438 -60.05712 40001 ft 474 kts 237°
2026-04-07 18:48 22.92895 -60.11743 40002 ft 474 kts 238°
2026-04-07 18:49 22.89342 -60.17768 40001 ft 474 kts 237°
2026-04-07 18:49 22.85754 -60.23778 40000 ft 474 kts 237°
2026-04-07 18:50 22.82178 -60.29732 40000 ft 474 kts 237°
2026-04-07 18:50 22.78573 -60.35720 40001 ft 474 kts 237°
2026-04-07 18:51 22.74963 -60.41714 40000 ft 474 kts 237°
2026-04-07 18:51 22.71377 -60.47662 40004 ft 474 kts 237°
2026-04-07 18:52 22.67771 -60.53638 40000 ft 474 kts 237°
2026-04-07 18:52 22.64161 -60.59613 40001 ft 474 kts 237°
2026-04-07 18:53 22.60550 -60.65584 40001 ft 474 kts 237°
2026-04-07 18:53 22.56934 -60.71555 40001 ft 474 kts 237°
2026-04-07 18:54 22.53319 -60.77518 40000 ft 474 kts 237°
2026-04-07 18:54 22.49695 -60.83488 40003 ft 474 kts 237°
2026-04-07 18:55 22.46100 -60.89406 40000 ft 474 kts 237°
2026-04-07 18:55 22.42474 -60.95367 40001 ft 474 kts 237°
2026-04-07 18:56 22.38847 -61.01324 40001 ft 474 kts 237°
2026-04-07 18:56 22.35219 -61.07273 40003 ft 474 kts 237°
2026-04-07 18:57 22.31581 -61.13234 40001 ft 474 kts 237°
2026-04-07 18:57 22.27950 -61.19177 40001 ft 474 kts 237°
2026-04-07 18:58 22.24340 -61.25078 40002 ft 474 kts 237°
2026-04-07 18:58 22.20704 -61.31016 40000 ft 474 kts 237°
2026-04-07 18:59 22.17066 -61.36950 40001 ft 474 kts 237°
2026-04-07 18:59 22.13424 -61.42885 40002 ft 474 kts 237°
2026-04-07 19:00 22.09783 -61.48810 40001 ft 474 kts 237°
2026-04-07 19:00 22.06133 -61.54745 40001 ft 474 kts 236°
2026-04-07 19:01 22.02484 -61.60671 40002 ft 474 kts 236°
2026-04-07 19:02 21.97034 -61.69510 40000 ft 474 kts 236°
2026-04-07 19:02 21.93379 -61.75429 40001 ft 474 kts 236°
2026-04-07 19:03 21.89726 -61.81339 40001 ft 474 kts 236°
2026-04-07 19:03 21.86069 -61.87249 40001 ft 474 kts 236°
2026-04-07 19:04 21.82411 -61.93154 40002 ft 474 kts 236°
2026-04-07 19:04 21.78749 -61.99060 40000 ft 474 kts 236°
2026-04-07 19:05 21.75080 -62.04969 40002 ft 474 kts 236°
2026-04-07 19:05 21.71416 -62.10865 40002 ft 474 kts 236°
2026-04-07 19:06 21.67762 -62.16738 40000 ft 474 kts 236°
2026-04-07 19:06 21.64091 -62.22632 40000 ft 474 kts 236°
2026-04-07 19:07 21.60418 -62.28524 40003 ft 474 kts 236°
2026-04-07 19:07 21.56742 -62.34413 40002 ft 474 kts 236°
2026-04-07 19:08 21.53065 -62.40299 40001 ft 474 kts 236°
2026-04-07 19:08 21.49408 -62.46146 40001 ft 474 kts 236°
2026-04-07 19:09 21.45725 -62.52030 40001 ft 474 kts 236°
2026-04-07 19:09 21.42044 -62.57904 40002 ft 474 kts 236°
2026-04-07 19:10 21.38360 -62.63775 40003 ft 474 kts 236°
2026-04-07 19:10 21.34667 -62.69647 40002 ft 474 kts 236°
2026-04-07 19:11 21.30974 -62.75510 40002 ft 474 kts 236°
2026-04-07 19:11 21.27304 -62.81335 40002 ft 474 kts 236°
2026-04-07 19:12 21.23606 -62.87199 40002 ft 474 kts 236°
2026-04-07 19:12 21.19900 -62.93070 40002 ft 474 kts 236°
2026-04-07 19:13 21.16198 -62.98929 40001 ft 474 kts 236°
2026-04-07 19:13 21.12499 -63.04777 40004 ft 474 kts 236°
2026-04-07 19:14 21.08819 -63.10591 40003 ft 474 kts 236°
2026-04-07 19:14 21.05114 -63.16445 40000 ft 474 kts 236°
2026-04-07 19:15 21.01414 -63.22287 40003 ft 474 kts 236°
2026-04-07 19:15 20.97711 -63.28127 40001 ft 474 kts 236°
2026-04-07 19:16 20.94002 -63.33973 40000 ft 474 kts 236°
2026-04-07 19:16 20.90291 -63.39815 40000 ft 474 kts 236°
2026-04-07 19:17 20.86602 -63.45616 40002 ft 474 kts 236°
2026-04-07 19:17 20.82888 -63.51450 40000 ft 474 kts 236°
2026-04-07 19:18 20.79170 -63.57286 40002 ft 474 kts 236°
2026-04-07 19:18 20.75456 -63.63109 40000 ft 474 kts 236°
2026-04-07 19:19 20.71854 -63.69010 40001 ft 474 kts 238°
2026-04-07 19:19 20.68336 -63.74974 40000 ft 474 kts 238°
2026-04-07 19:20 20.64835 -63.80888 40000 ft 474 kts 238°
2026-04-07 19:20 20.61284 -63.86842 40000 ft 474 kts 237°
2026-04-07 19:21 20.58336 -63.91768 40000 ft 474 kts 237°
2026-04-07 19:21 20.54781 -63.97699 40002 ft 474 kts 237°
2026-04-07 19:22 20.51218 -64.03640 40001 ft 474 kts 237°
2026-04-07 19:22 20.47664 -64.09561 40001 ft 474 kts 237°
2026-04-07 19:23 20.44130 -64.15444 40003 ft 474 kts 237°
2026-04-07 19:23 20.40569 -64.21365 40000 ft 474 kts 237°
2026-04-07 19:24 20.37007 -64.27280 40003 ft 474 kts 237°
2026-04-07 19:24 20.33439 -64.33201 40001 ft 474 kts 237°
2026-04-07 19:25 20.29873 -64.39112 40002 ft 474 kts 237°
2026-04-07 19:25 20.26306 -64.45019 40000 ft 474 kts 237°
2026-04-07 19:26 20.22737 -64.50923 40000 ft 474 kts 237°
2026-04-07 19:26 20.19164 -64.56828 40000 ft 474 kts 237°
2026-04-07 19:27 20.15609 -64.62699 40002 ft 474 kts 237°
2026-04-07 19:27 20.12036 -64.68594 40003 ft 474 kts 237°
2026-04-07 19:28 20.08459 -64.74488 40002 ft 474 kts 237°
2026-04-07 19:28 20.04874 -64.80381 40001 ft 474 kts 237°
2026-04-07 19:29 20.01288 -64.86269 40001 ft 474 kts 237°
2026-04-07 19:29 19.97702 -64.92154 40003 ft 474 kts 237°
2026-04-07 19:30 19.94115 -64.98036 40000 ft 474 kts 237°
2026-04-07 19:30 19.90521 -65.03925 40002 ft 474 kts 237°
2026-04-07 19:31 19.86952 -65.09767 40001 ft 474 kts 237°
2026-04-07 19:31 19.83356 -65.15646 40003 ft 474 kts 237°
2026-04-07 19:32 19.79762 -65.21518 40001 ft 474 kts 237°
2026-04-07 19:32 19.76162 -65.27392 40000 ft 474 kts 237°
2026-04-07 19:33 19.72563 -65.33259 40000 ft 474 kts 237°
2026-04-07 19:33 19.68964 -65.39120 40001 ft 474 kts 237°
2026-04-07 19:34 19.65361 -65.44983 40003 ft 474 kts 237°
2026-04-07 19:34 19.61780 -65.50804 40000 ft 474 kts 237°
2026-04-07 19:35 19.58177 -65.56656 40003 ft 474 kts 237°
2026-04-07 19:35 19.54563 -65.62518 40000 ft 474 kts 237°
2026-04-07 19:36 19.50958 -65.68363 40000 ft 474 kts 237°
2026-04-07 19:36 19.47349 -65.74207 40000 ft 474 kts 237°
2026-04-07 19:37 19.43735 -65.80055 40003 ft 474 kts 237°
2026-04-07 19:37 19.40280 -65.86009 40000 ft 474 kts 240°
2026-04-07 19:38 19.37007 -65.92063 40001 ft 474 kts 240°
2026-04-07 19:38 19.33729 -65.98076 40000 ft 474 kts 240°
2026-04-07 19:39 19.30398 -66.04103 40001 ft 474 kts 239°
2026-04-07 19:39 19.27056 -66.10121 40003 ft 474 kts 239°
2026-04-07 19:40 19.23711 -66.16144 40003 ft 474 kts 239°
2026-04-07 19:40 19.20370 -66.22158 39935 ft 474 kts 239°
2026-04-07 19:40 19.18718 -66.25129 39529 ft 474 kts 239°
2026-04-07 19:41 19.17050 -66.28127 39057 ft 471 kts 239°
2026-04-07 19:41 19.15393 -66.31102 38554 ft 468 kts 239°
2026-04-07 19:41 19.13747 -66.34054 38058 ft 464 kts 239°
2026-04-07 19:41 19.12110 -66.36985 37558 ft 462 kts 239°
2026-04-07 19:42 19.10479 -66.39906 37058 ft 459 kts 239°
2026-04-07 19:42 19.08863 -66.42802 36539 ft 456 kts 239°
2026-04-07 19:42 19.07253 -66.45684 36055 ft 454 kts 239°
2026-04-07 19:42 19.05648 -66.48555 35526 ft 452 kts 239°
2026-04-07 19:43 19.04049 -66.51417 35001 ft 450 kts 239°
2026-04-07 19:43 19.02458 -66.54261 34450 ft 448 kts 239°
2026-04-07 19:43 19.00895 -66.57054 33934 ft 446 kts 239°
2026-04-07 19:43 18.99320 -66.59870 33403 ft 444 kts 239°
2026-04-07 19:44 18.97751 -66.62671 32893 ft 442 kts 239°
2026-04-07 19:44 18.96187 -66.65462 32371 ft 440 kts 239°
2026-04-07 19:44 18.94634 -66.68232 31863 ft 437 kts 239°
2026-04-07 19:44 18.93086 -66.70994 31343 ft 435 kts 239°
2026-04-07 19:45 18.91548 -66.73734 30843 ft 432 kts 239°
2026-04-07 19:45 18.90022 -66.76453 30344 ft 429 kts 239°
2026-04-07 19:45 18.88503 -66.79159 29853 ft 426 kts 239°
2026-04-07 19:45 18.86993 -66.81847 29344 ft 424 kts 239°
2026-04-07 19:46 18.85490 -66.84520 28806 ft 422 kts 239°
2026-04-07 19:46 18.84013 -66.87149 28292 ft 420 kts 239°
2026-04-07 19:46 18.82524 -66.89795 27764 ft 418 kts 239°
2026-04-07 19:46 18.81041 -66.92431 27253 ft 417 kts 239°
2026-04-07 19:47 18.79549 -66.95099 26733 ft 429 kts 239°
2026-04-07 19:47 18.78023 -66.97837 26198 ft 431 kts 239°
2026-04-07 19:47 18.76502 -67.00561 25671 ft 436 kts 239°
2026-04-07 19:47 18.74939 -67.03348 25147 ft 446 kts 239°
2026-04-07 19:48 18.73337 -67.06195 24578 ft 456 kts 239°
2026-04-07 19:48 18.71702 -67.09094 24029 ft 464 kts 239°
2026-04-07 19:48 18.70040 -67.12036 23529 ft 463 kts 239°
2026-04-07 19:48 18.68415 -67.14911 22928 ft 451 kts 239°
2026-04-07 19:49 18.66825 -67.17720 22363 ft 440 kts 239°
2026-04-07 19:49 18.65275 -67.20455 21824 ft 430 kts 239°
2026-04-07 19:49 18.63772 -67.23103 21312 ft 422 kts 239°
2026-04-07 19:49 18.62276 -67.25734 20792 ft 415 kts 239°
2026-04-07 19:50 18.60785 -67.28363 20320 ft 423 kts 239°
2026-04-07 19:50 18.59276 -67.31036 19785 ft 420 kts 239°
2026-04-07 19:50 18.57796 -67.33652 19270 ft 412 kts 239°
2026-04-07 19:50 18.56338 -67.36229 18759 ft 405 kts 239°
2026-04-07 19:51 18.54901 -67.38759 18258 ft 399 kts 239°
2026-04-07 19:51 18.53480 -67.41255 17783 ft 393 kts 239°
2026-04-07 19:51 18.52083 -67.43713 17278 ft 388 kts 239°
2026-04-07 19:51 18.50709 -67.46139 16806 ft 383 kts 239°
2026-04-07 19:52 18.49515 -67.48632 16317 ft 381 kts 250°
2026-04-07 19:52 18.48918 -67.51378 15857 ft 387 kts 264°
2026-04-07 19:52 18.48853 -67.54151 15392 ft 381 kts 270°
2026-04-07 19:52 18.48864 -67.56959 14913 ft 376 kts 269°
2026-04-07 19:53 18.48831 -67.59672 14447 ft 372 kts 269°
2026-04-07 19:53 18.48782 -67.62388 13981 ft 368 kts 268°
2026-04-07 19:53 18.48727 -67.65078 13526 ft 365 kts 268°
2026-04-07 19:53 18.48670 -67.67745 13064 ft 362 kts 268°
2026-04-07 19:54 18.48614 -67.70389 12612 ft 359 kts 268°
2026-04-07 19:54 18.48558 -67.73013 12163 ft 357 kts 268°
2026-04-07 19:54 18.48502 -67.75595 11720 ft 355 kts 268°
2026-04-07 19:54 18.48444 -67.78255 11283 ft 371 kts 268°
2026-04-07 19:55 18.48382 -67.81031 10890 ft 384 kts 268°
2026-04-07 19:55 18.48321 -67.83771 10379 ft 364 kts 268°
2026-04-07 19:55 18.48257 -67.86355 10095 ft 335 kts 268°
2026-04-07 19:55 18.48192 -67.88701 9829 ft 307 kts 268°
2026-04-07 19:56 18.48134 -67.90857 9574 ft 283 kts 268°
2026-04-07 19:56 18.48085 -67.92883 9150 ft 270 kts 268°
2026-04-07 19:56 18.48040 -67.94864 8819 ft 269 kts 269°
2026-04-07 19:56 18.47996 -67.96809 8503 ft 268 kts 269°
2026-04-07 19:57 18.47957 -67.98770 8174 ft 264 kts 271°
2026-04-07 19:57 18.48388 -68.00605 8040 ft 261 kts 299°
2026-04-07 19:57 18.49456 -68.02178 8024 ft 268 kts 307°
2026-04-07 19:57 18.50594 -68.03746 8011 ft 270 kts 307°
2026-04-07 19:58 18.51724 -68.05321 8002 ft 267 kts 307°
2026-04-07 19:58 18.52823 -68.06853 7989 ft 256 kts 307°
2026-04-07 19:58 18.53872 -68.08314 7985 ft 246 kts 307°
2026-04-07 19:58 18.54898 -68.09746 7986 ft 241 kts 307°
2026-04-07 19:59 18.55892 -68.11134 7980 ft 235 kts 307°
2026-04-07 19:59 18.56841 -68.12460 7984 ft 225 kts 307°
2026-04-07 19:59 18.57782 -68.13775 7987 ft 226 kts 307°
2026-04-07 19:59 18.58730 -68.15101 7989 ft 225 kts 307°
2026-04-07 20:00 18.59654 -68.16395 7990 ft 216 kts 307°
2026-04-07 20:00 18.60530 -68.17620 7978 ft 203 kts 307°
2026-04-07 20:00 18.62206 -68.19967 8033 ft 200 kts 306°
2026-04-07 20:01 18.63055 -68.21156 8013 ft 204 kts 306°
2026-04-07 20:01 18.63901 -68.22342 7992 ft 200 kts 306°
2026-04-07 20:01 18.64730 -68.23505 7995 ft 196 kts 306°
2026-04-07 20:01 18.65540 -68.24664 8001 ft 199 kts 306°
2026-04-07 20:02 18.66358 -68.25842 8005 ft 202 kts 306°
2026-04-07 20:02 18.67186 -68.27035 7994 ft 201 kts 306°
2026-04-07 20:02 18.68008 -68.28217 7996 ft 200 kts 306°
2026-04-07 20:02 18.68829 -68.29399 7998 ft 199 kts 306°
2026-04-07 20:03 18.69647 -68.30576 7999 ft 199 kts 306°
2026-04-07 20:03 18.70336 -68.31827 7985 ft 197 kts 282°
2026-04-07 20:03 18.70191 -68.33247 7891 ft 201 kts 248°
2026-04-07 20:03 18.69623 -68.34605 7720 ft 203 kts 247°
2026-04-07 20:04 18.69080 -68.35969 7515 ft 200 kts 247°
2026-04-07 20:04 18.68546 -68.37312 7347 ft 199 kts 247°
2026-04-07 20:04 18.68007 -68.38665 7184 ft 201 kts 247°
2026-04-07 20:04 18.67469 -68.40015 6984 ft 197 kts 247°
2026-04-07 20:05 18.66946 -68.41329 6764 ft 190 kts 247°
2026-04-07 20:05 18.66447 -68.42583 6558 ft 185 kts 247°
2026-04-07 20:05 18.65950 -68.43831 6366 ft 186 kts 247°
2026-04-07 20:05 18.65444 -68.45101 6170 ft 187 kts 247°
2026-04-07 20:06 18.64939 -68.46369 5947 ft 187 kts 247°
2026-04-07 20:06 18.64436 -68.47636 5739 ft 187 kts 247°
2026-04-07 20:06 18.63939 -68.48885 5567 ft 182 kts 247°
2026-04-07 20:06 18.63451 -68.50109 5349 ft 179 kts 247°
2026-04-07 20:07 18.62981 -68.51289 5136 ft 171 kts 247°
2026-04-07 20:07 18.62520 -68.52447 4948 ft 171 kts 247°
2026-04-07 20:07 18.62058 -68.53605 4773 ft 171 kts 247°
2026-04-07 20:07 18.61598 -68.54758 4578 ft 171 kts 247°
2026-04-07 20:08 18.61294 -68.55522 4452 ft 170 kts 247°
2026-04-07 20:08 18.60567 -68.56953 4171 ft 165 kts 220°
2026-04-07 20:08 18.59518 -68.57246 4147 ft 162 kts 171°
2026-04-07 20:08 18.58400 -68.56923 3950 ft 167 kts 165°
2026-04-07 20:09 18.57307 -68.56612 3743 ft 159 kts 165°
2026-04-07 20:09 18.56603 -68.56410 3618 ft 158 kts 165°
2026-04-07 20:09 18.55540 -68.56101 3454 ft 158 kts 165°
2026-04-07 20:09 18.54479 -68.55789 3280 ft 158 kts 165°
2026-04-07 20:10 18.53426 -68.55469 3113 ft 153 kts 159°
2026-04-07 20:10 18.52696 -68.54735 2915 ft 151 kts 106°
2026-04-07 20:10 18.52821 -68.53673 2822 ft 149 kts 68°
2026-04-07 20:10 18.53143 -68.52627 2646 ft 150 kts 74°
2026-04-07 20:11 18.53417 -68.51579 2478 ft 148 kts 74°
2026-04-07 20:11 18.53696 -68.50535 2307 ft 148 kts 74°
2026-04-07 20:11 18.53978 -68.49498 2121 ft 147 kts 73°
2026-04-07 20:11 18.54263 -68.48472 1954 ft 146 kts 73°
2026-04-07 20:12 18.54536 -68.47493 1802 ft 146 kts 73°
2026-04-07 20:12 18.54823 -68.46451 1583 ft 150 kts 74°
2026-04-07 20:12 18.55107 -68.45394 1378 ft 150 kts 74°
2026-04-07 20:12 18.55393 -68.44338 1261 ft 147 kts 73°
2026-04-07 20:13 18.55667 -68.43313 1148 ft 143 kts 74°
2026-04-07 20:13 18.55932 -68.42305 1042 ft 146 kts 74°
2026-04-07 20:13 18.56215 -68.41266 755 ft 146 kts 73°
2026-04-07 20:13 18.56490 -68.40245 471 ft 143 kts 74°
2026-04-07 20:14 18.56763 -68.39254 267 ft 141 kts 73°
2026-04-07 20:14 18.57039 -68.38251 108 ft 142 kts 73°
2026-04-07 20:14 18.57307 -68.37288 51 ft 124 kts 73°
2026-04-07 20:14 18.57496 -68.36610 50 ft 71 kts 74°
2026-04-07 20:15 18.57589 -68.36263 49 ft 30 kts 77°
2026-04-07 20:15 18.57595 -68.36045 51 ft 30 kts 102°
2026-04-07 20:15 18.57528 -68.35878 49 ft 20 kts 135°
2026-04-07 20:15 18.57397 -68.35833 52 ft 21 kts 176°
2026-04-07 20:16 18.57252 -68.35825 52 ft 22 kts 177°
2026-04-07 20:16 18.57099 -68.35816 49 ft 23 kts 176°
2026-04-07 20:16 18.56980 -68.35831 48 ft 14 kts 233°
2026-04-07 20:16 18.56964 -68.35939 49 ft 16 kts 264°
2026-04-07 20:17 18.56953 -68.36058 54 ft 17 kts 264°
2026-04-07 20:17 18.56941 -68.36195 52 ft 20 kts 265°
2026-04-07 20:17 18.56927 -68.36342 53 ft 20 kts 264°
2026-04-07 20:17 18.56915 -68.36490 55 ft 20 kts 265°
2026-04-07 20:18 18.56902 -68.36638 55 ft 20 kts 264°
2026-04-07 20:18 18.56876 -68.36749 48 ft 12 kts 212°
2026-04-07 20:18 18.56795 -68.36753 50 ft 12 kts 178°
2026-04-07 20:18 18.56712 -68.36753 52 ft 12 kts 181°
2026-04-07 20:19 18.56621 -68.36755 49 ft 15 kts 180°
2026-04-07 20:19 18.56538 -68.36749 51 ft 3 kts 137°
2026-04-07 20:19 18.56530 -68.36729 49 ft 8 kts 108°
2026-04-07 20:19 18.56533 -68.36640 49 ft 13 kts 84°
2026-04-07 20:20 18.56542 -68.36536 53 ft 17 kts 84°
2026-04-07 20:20 18.56548 -68.36426 55 ft 12 kts 106°
2026-04-07 20:20 18.56481 -68.36381 49 ft 12 kts 139°
2026-04-07 20:20 18.56470 -68.36300 50 ft 12 kts 85°
2026-04-07 20:21 18.56461 -68.36232 48 ft 8 kts 147°
2026-04-07 20:21 18.56428 -68.36223 48 ft 5 kts 172°
2026-04-07 20:21 18.56402 -68.36220 51 ft 2 kts 174°
2026-04-07 20:21 18.56398 -68.36220 51 ft 0 kts 174°